1000 dernières valeurs brutes
Date Temp Humidity Gust Pressure Rain
28 octobre 16:51 16.2°C 57% 10.0 km/h S 1016.4 hPa 0 mm
28 octobre 16:50 16.4°C 57% 5.3 km/h S 1016.4 hPa 0 mm
28 octobre 16:49 16.4°C 57% 12.7 km/h S 1016.4 hPa 0 mm
28 octobre 16:48 16.4°C 57% 10.6 km/h S 1016.4 hPa 0 mm
28 octobre 16:47 16.4°C 56% 9.0 km/h S 1016.4 hPa 0 mm
28 octobre 16:46 16.4°C 57% 13.2 km/h SE 1016.4 hPa 0 mm
28 octobre 16:45 16.4°C 57% 14.2 km/h SSO 1016.4 hPa 0 mm
28 octobre 16:44 16.4°C 57% 10.0 km/h SSO 1016.4 hPa 0 mm
28 octobre 16:43 16.4°C 58% 11.1 km/h SSO 1016.4 hPa 0 mm
28 octobre 16:42 16.4°C 58% 8.4 km/h S 1016.4 hPa 0 mm
28 octobre 16:41 16.4°C 58% 5.8 km/h SE 1016.5 hPa 0 mm
28 octobre 16:40 16.4°C 58% 7.9 km/h S 1016.5 hPa 0 mm
28 octobre 16:39 16.4°C 58% 7.4 km/h S 1016.4 hPa 0 mm
28 octobre 16:38 16.4°C 58% 7.4 km/h SE 1016.5 hPa 0 mm
28 octobre 16:37 16.4°C 58% 7.9 km/h SSO 1016.5 hPa 0 mm
28 octobre 16:36 16.4°C 58% 9.0 km/h S 1016.5 hPa 0 mm
28 octobre 16:35 16.4°C 58% 7.9 km/h SSO 1016.5 hPa 0 mm
28 octobre 16:34 16.4°C 57% 8.4 km/h SSE 1016.5 hPa 0 mm
28 octobre 16:33 16.5°C 57% 11.1 km/h SSO 1016.6 hPa 0 mm
28 octobre 16:32 16.5°C 57% 12.1 km/h SSE 1016.6 hPa 0 mm
28 octobre 16:31 16.5°C 57% 10.6 km/h S 1016.6 hPa 0 mm
28 octobre 16:30 16.5°C 57% 12.1 km/h SSO 1016.6 hPa 0 mm
28 octobre 16:29 16.6°C 58% 7.4 km/h S 1016.6 hPa 0 mm
28 octobre 16:28 16.7°C 57% 10.6 km/h S 1016.6 hPa 0 mm
28 octobre 16:27 16.7°C 56% 11.6 km/h SSE 1016.6 hPa 0 mm
28 octobre 16:26 16.9°C 57% 12.7 km/h SE 1016.6 hPa 0 mm
28 octobre 16:25 17.0°C 56% 12.7 km/h SSE 1016.6 hPa 0 mm
28 octobre 16:24 17.2°C 56% 6.9 km/h SSE 1016.5 hPa 0 mm
28 octobre 16:23 17.3°C 55% 5.3 km/h SE 1016.5 hPa 0 mm
28 octobre 16:22 17.3°C 56% 5.3 km/h SE 1016.6 hPa 0 mm
28 octobre 16:21 17.3°C 56% 4.8 km/h S 1016.6 hPa 0 mm
28 octobre 16:20 17.2°C 56% 5.8 km/h SSE 1016.6 hPa 0 mm
28 octobre 16:19 17.0°C 56% 9.0 km/h S 1016.6 hPa 0 mm
28 octobre 16:18 16.9°C 57% 10.6 km/h S 1016.6 hPa 0 mm
28 octobre 16:17 16.8°C 56% 11.1 km/h SE 1016.6 hPa 0 mm
28 octobre 16:16 16.6°C 57% 13.7 km/h S 1016.6 hPa 0 mm
28 octobre 16:15 16.5°C 57% 10.6 km/h SSE 1016.7 hPa 0 mm
28 octobre 16:14 16.4°C 57% 6.3 km/h SSE 1016.6 hPa 0 mm
28 octobre 16:13 16.4°C 57% 7.9 km/h SSO 1016.6 hPa 0 mm
28 octobre 16:12 16.4°C 57% 11.6 km/h S 1016.6 hPa 0 mm
28 octobre 16:11 16.4°C 57% 12.7 km/h SSO 1016.7 hPa 0 mm
28 octobre 16:10 16.4°C 57% 11.6 km/h S 1016.7 hPa 0 mm
28 octobre 16:09 16.4°C 57% 10.6 km/h S 1016.7 hPa 0 mm
28 octobre 16:08 16.4°C 58% 9.5 km/h SSE 1016.7 hPa 0 mm
28 octobre 16:07 16.4°C 58% 9.5 km/h SSE 1016.7 hPa 0 mm
28 octobre 16:06 16.4°C 58% 11.1 km/h S 1016.7 hPa 0 mm
28 octobre 16:05 16.4°C 58% 6.9 km/h SE 1016.8 hPa 0 mm
28 octobre 16:04 16.4°C 58% 12.1 km/h S 1016.8 hPa 0 mm
28 octobre 16:03 16.4°C 58% 9.5 km/h SSO 1016.8 hPa 0 mm
28 octobre 16:02 16.2°C 59% 10.0 km/h S 1016.8 hPa 0 mm
28 octobre 16:01 16.2°C 58% 10.6 km/h SSO 1016.8 hPa 0 mm
28 octobre 16:00 16.2°C 59% 12.1 km/h S 1016.8 hPa 0 mm
28 octobre 15:59 16.2°C 59% 8.4 km/h SSO 1016.8 hPa 0 mm
28 octobre 15:58 16.1°C 58% 12.1 km/h S 1016.8 hPa 0 mm
28 octobre 15:57 16.2°C 59% 10.6 km/h SSO 1016.8 hPa 0 mm
28 octobre 15:56 16.2°C 59% 11.6 km/h S 1016.8 hPa 0 mm
28 octobre 15:55 16.2°C 59% 13.7 km/h S 1016.8 hPa 0 mm
28 octobre 15:54 16.3°C 58% 15.8 km/h SO 1016.8 hPa 0 mm
28 octobre 15:53 16.4°C 58% 11.1 km/h S 1016.8 hPa 0 mm
28 octobre 15:52 16.5°C 58% 12.7 km/h SSO 1016.9 hPa 0 mm
28 octobre 15:51 16.7°C 58% 11.1 km/h SSO 1016.9 hPa 0 mm
28 octobre 15:50 16.8°C 57% 7.4 km/h S 1016.9 hPa 0 mm
28 octobre 15:49 17.0°C 57% 11.1 km/h SSO 1016.9 hPa 0 mm
28 octobre 15:48 17.0°C 57% 9.5 km/h SE 1016.9 hPa 0 mm
28 octobre 15:47 17.2°C 57% 11.1 km/h SSE 1016.9 hPa 0 mm
28 octobre 15:46 17.2°C 57% 11.6 km/h SSO 1016.9 hPa 0 mm
28 octobre 15:45 17.3°C 57% 10.6 km/h S 1016.9 hPa 0 mm
28 octobre 15:44 17.3°C 57% 10.0 km/h S 1016.9 hPa 0 mm
28 octobre 15:43 17.2°C 57% 7.4 km/h S 1016.9 hPa 0 mm
28 octobre 15:42 17.1°C 57% 10.6 km/h SO 1016.9 hPa 0 mm
28 octobre 15:41 17.1°C 57% 8.4 km/h SSO 1016.9 hPa 0 mm
28 octobre 15:40 17.0°C 58% 9.5 km/h SSO 1016.9 hPa 0 mm
28 octobre 15:39 17.0°C 58% 8.4 km/h SO 1016.9 hPa 0 mm
28 octobre 15:38 16.8°C 57% 6.9 km/h SSE 1016.9 hPa 0 mm
28 octobre 15:37 16.8°C 57% 10.6 km/h SSE 1016.9 hPa 0 mm
28 octobre 15:36 16.9°C 57% 9.5 km/h S 1017.0 hPa 0 mm
28 octobre 15:35 16.9°C 57% 11.1 km/h SSO 1017.0 hPa 0 mm
28 octobre 15:34 17.0°C 57% 11.1 km/h SSO 1017.0 hPa 0 mm
28 octobre 15:33 17.1°C 57% 10.0 km/h S 1017.0 hPa 0 mm
28 octobre 15:32 17.1°C 57% 10.6 km/h S 1017.0 hPa 0 mm
28 octobre 15:31 17.1°C 57% 13.7 km/h SSO 1017.0 hPa 0 mm
28 octobre 15:30 17.2°C 56% 12.7 km/h SSO 1017.0 hPa 0 mm
28 octobre 15:29 17.4°C 57% 14.8 km/h SSO 1017.0 hPa 0 mm
28 octobre 15:28 17.4°C 57% 13.2 km/h SSO 1017.0 hPa 0 mm
28 octobre 15:27 17.3°C 57% 9.5 km/h S 1017.0 hPa 0 mm
28 octobre 15:26 17.4°C 58% 5.8 km/h SO 1017.0 hPa 0 mm
28 octobre 15:25 17.3°C 57% 6.9 km/h S 1017.0 hPa 0 mm
28 octobre 15:24 17.4°C 57% 6.9 km/h SSO 1017.0 hPa 0 mm
28 octobre 15:23 17.2°C 57% 5.3 km/h S 1017.0 hPa 0 mm
28 octobre 15:22 17.2°C 58% 8.4 km/h SSE 1017.0 hPa 0 mm
28 octobre 15:21 17.2°C 58% 6.3 km/h SSE 1017.0 hPa 0 mm
28 octobre 15:20 17.1°C 57% 4.2 km/h S 1017.0 hPa 0 mm
28 octobre 15:19 17.0°C 57% 5.3 km/h SSE 1017.0 hPa 0 mm
28 octobre 15:18 17.0°C 57% 5.3 km/h SSO 1017.0 hPa 0 mm
28 octobre 15:17 17.0°C 57% 9.5 km/h SE 1017.0 hPa 0 mm
28 octobre 15:16 17.0°C 57% 7.9 km/h SO 1017.0 hPa 0 mm
28 octobre 15:15 17.0°C 57% 10.6 km/h SSO 1017.0 hPa 0 mm
28 octobre 15:14 17.1°C 56% 13.2 km/h S 1017.0 hPa 0 mm
28 octobre 15:13 17.3°C 56% 14.2 km/h S 1017.0 hPa 0 mm
28 octobre 15:12 17.4°C 56% 13.7 km/h SO 1017.0 hPa 0 mm
28 octobre 15:11 17.5°C 56% 12.1 km/h SSO 1017.1 hPa 0 mm
28 octobre 15:10 17.5°C 56% 13.7 km/h SSO 1017.1 hPa 0 mm
28 octobre 15:09 17.7°C 55% 16.4 km/h S 1017.0 hPa 0 mm
28 octobre 15:08 17.9°C 56% 15.3 km/h S 1017.1 hPa 0 mm
28 octobre 15:07 17.9°C 56% 11.1 km/h SSE 1017.1 hPa 0 mm
28 octobre 15:06 17.9°C 56% 14.2 km/h SSO 1017.1 hPa 0 mm
28 octobre 15:05 17.9°C 56% 13.2 km/h SSO 1017.1 hPa 0 mm
28 octobre 15:04 17.8°C 57% 8.4 km/h SO 1017.1 hPa 0 mm
28 octobre 15:03 17.7°C 56% 12.1 km/h SO 1017.1 hPa 0 mm
28 octobre 15:02 17.6°C 55% 12.7 km/h SO 1017.1 hPa 0 mm
28 octobre 15:01 17.8°C 56% 11.6 km/h S 1017.1 hPa 0 mm
28 octobre 15:00 17.9°C 57% 11.1 km/h SSO 1017.1 hPa 0 mm
28 octobre 14:59 17.9°C 57% 11.1 km/h S 1017.2 hPa 0 mm
28 octobre 14:58 17.8°C 57% 9.0 km/h S 1017.2 hPa 0 mm
28 octobre 14:57 17.7°C 57% 10.6 km/h SSO 1017.2 hPa 0 mm
28 octobre 14:56 17.5°C 59% 9.0 km/h SSO 1017.2 hPa 0 mm
28 octobre 14:55 17.2°C 59% 7.4 km/h SO 1017.2 hPa 0 mm
28 octobre 14:54 17.0°C 57% 5.8 km/h S 1017.3 hPa 0 mm
28 octobre 14:53 16.9°C 58% 6.9 km/h SSE 1017.3 hPa 0 mm
28 octobre 14:52 16.8°C 58% 7.4 km/h SSE 1017.3 hPa 0 mm
28 octobre 14:51 16.8°C 58% 7.9 km/h SSE 1017.3 hPa 0 mm
28 octobre 14:50 16.8°C 58% 10.0 km/h SE 1017.3 hPa 0 mm
28 octobre 14:49 16.9°C 58% 6.3 km/h S 1017.4 hPa 0 mm
28 octobre 14:48 17.0°C 56% 6.3 km/h SSE 1017.4 hPa 0 mm
28 octobre 14:47 17.1°C 57% 8.4 km/h SSE 1017.4 hPa 0 mm
28 octobre 14:46 17.3°C 57% 10.6 km/h S 1017.4 hPa 0 mm
28 octobre 14:45 17.4°C 58% 6.3 km/h S 1017.4 hPa 0 mm
28 octobre 14:44 17.6°C 57% 7.4 km/h S 1017.4 hPa 0 mm
28 octobre 14:43 17.6°C 57% 12.7 km/h S 1017.4 hPa 0 mm
28 octobre 14:42 17.8°C 56% 12.7 km/h SSO 1017.4 hPa 0 mm
28 octobre 14:41 17.9°C 56% 9.5 km/h SSO 1017.4 hPa 0 mm
28 octobre 14:40 18.0°C 56% 7.4 km/h SSE 1017.4 hPa 0 mm
28 octobre 14:39 18.1°C 55% 11.1 km/h S 1017.4 hPa 0 mm
28 octobre 14:38 18.3°C 55% 11.1 km/h OSO 1017.3 hPa 0 mm
28 octobre 14:37 18.3°C 55% 10.6 km/h SO 1017.4 hPa 0 mm
28 octobre 14:36 18.3°C 55% 9.0 km/h SO 1017.4 hPa 0 mm
28 octobre 14:35 18.2°C 56% 11.1 km/h SSO 1017.4 hPa 0 mm
28 octobre 14:34 18.4°C 56% 13.7 km/h SSE 1017.5 hPa 0 mm
28 octobre 14:33 18.4°C 55% 11.6 km/h SO 1017.4 hPa 0 mm
28 octobre 14:32 18.5°C 57% 7.9 km/h OSO 1017.5 hPa 0 mm
28 octobre 14:31 18.4°C 54% 9.5 km/h SSO 1017.5 hPa 0 mm
28 octobre 14:30 18.4°C 55% 10.6 km/h SO 1017.5 hPa 0 mm
28 octobre 14:29 18.3°C 57% 11.6 km/h SO 1017.5 hPa 0 mm
28 octobre 14:28 18.2°C 56% 12.7 km/h SSO 1017.5 hPa 0 mm
28 octobre 14:27 18.2°C 55% 14.2 km/h S 1017.5 hPa 0 mm
28 octobre 14:26 18.3°C 56% 11.6 km/h SO 1017.5 hPa 0 mm
28 octobre 14:25 18.4°C 57% 12.1 km/h SSO 1017.5 hPa 0 mm
28 octobre 14:24 18.3°C 55% 7.4 km/h SO 1017.5 hPa 0 mm
28 octobre 14:23 18.3°C 55% 9.5 km/h OSO 1017.6 hPa 0 mm
28 octobre 14:22 18.5°C 55% 7.9 km/h S 1017.6 hPa 0 mm
28 octobre 14:21 18.4°C 55% 6.9 km/h SSE 1017.6 hPa 0 mm
28 octobre 14:20 18.4°C 57% 9.5 km/h SSO 1017.7 hPa 0 mm
28 octobre 14:19 18.3°C 56% 10.6 km/h S 1017.7 hPa 0 mm
28 octobre 14:18 18.1°C 57% 10.6 km/h SO 1017.7 hPa 0 mm
28 octobre 14:17 18.1°C 57% 11.1 km/h SSO 1017.7 hPa 0 mm
28 octobre 14:16 18.0°C 56% 9.5 km/h SO 1017.7 hPa 0 mm
28 octobre 14:15 17.9°C 56% 10.6 km/h SO 1017.7 hPa 0 mm
28 octobre 14:14 17.9°C 56% 13.7 km/h S 1017.7 hPa 0 mm
28 octobre 14:13 18.0°C 56% 9.5 km/h SO 1017.7 hPa 0 mm
28 octobre 14:12 17.9°C 57% 11.1 km/h S 1017.8 hPa 0 mm
28 octobre 14:11 17.8°C 56% 12.7 km/h SSO 1017.9 hPa 0 mm
28 octobre 14:10 17.7°C 57% 12.7 km/h SSO 1017.9 hPa 0 mm
28 octobre 14:09 17.6°C 56% 13.7 km/h S 1017.9 hPa 0 mm
28 octobre 14:08 17.7°C 58% 13.7 km/h S 1017.9 hPa 0 mm
28 octobre 14:07 17.5°C 57% 5.8 km/h SSE 1017.9 hPa 0 mm
28 octobre 14:06 17.3°C 56% 5.3 km/h SE 1017.9 hPa 0 mm
28 octobre 14:05 17.3°C 56% 8.4 km/h ESE 1018.0 hPa 0 mm
28 octobre 14:04 17.3°C 56% 10.0 km/h SE 1018.0 hPa 0 mm
28 octobre 14:03 17.2°C 57% 11.1 km/h SSE 1018.0 hPa 0 mm
28 octobre 14:02 17.3°C 56% 11.1 km/h SSE 1018.0 hPa 0 mm
28 octobre 14:01 17.4°C 57% 9.5 km/h SSE 1018.0 hPa 0 mm
28 octobre 14:00 17.4°C 56% 11.1 km/h SSO 1018.0 hPa 0 mm
28 octobre 13:59 17.4°C 56% 12.1 km/h S 1018.1 hPa 0 mm
28 octobre 13:58 17.5°C 57% 13.2 km/h SSE 1018.1 hPa 0 mm
28 octobre 13:57 17.4°C 57% 13.2 km/h S 1018.2 hPa 0 mm
28 octobre 13:56 17.3°C 57% 10.6 km/h S 1018.2 hPa 0 mm
28 octobre 13:55 17.2°C 57% 10.0 km/h S 1018.2 hPa 0 mm
28 octobre 13:54 17.3°C 57% 12.1 km/h S 1018.1 hPa 0 mm
28 octobre 13:53 17.4°C 58% 11.1 km/h S 1018.1 hPa 0 mm
28 octobre 13:52 17.4°C 57% 12.7 km/h SE 1018.1 hPa 0 mm
28 octobre 13:51 17.3°C 58% 11.1 km/h S 1018.1 hPa 0 mm
28 octobre 13:50 17.3°C 57% 6.9 km/h SSE 1018.1 hPa 0 mm
28 octobre 13:49 17.2°C 58% 9.0 km/h S 1018.2 hPa 0 mm
28 octobre 13:48 17.2°C 58% 12.1 km/h S 1018.2 hPa 0 mm
28 octobre 13:47 17.1°C 58% 12.1 km/h S 1018.2 hPa 0 mm
28 octobre 13:46 17.0°C 57% 11.1 km/h SO 1018.2 hPa 0 mm
28 octobre 13:45 17.0°C 58% 14.8 km/h S 1018.2 hPa 0 mm
28 octobre 13:44 16.9°C 59% 15.8 km/h SSO 1018.2 hPa 0 mm
28 octobre 13:43 16.7°C 59% 12.1 km/h SSO 1018.2 hPa 0 mm
28 octobre 13:42 16.6°C 58% 13.2 km/h SSE 1018.2 hPa 0 mm
28 octobre 13:41 16.7°C 58% 14.2 km/h S 1018.3 hPa 0 mm
28 octobre 13:40 16.9°C 57% 14.8 km/h SSO 1018.4 hPa 0 mm
28 octobre 13:39 16.9°C 57% 14.2 km/h S 1018.3 hPa 0 mm
28 octobre 13:38 17.0°C 56% 13.7 km/h S 1018.2 hPa 0 mm
28 octobre 13:37 17.1°C 57% 13.2 km/h S 1018.2 hPa 0 mm
28 octobre 13:36 17.3°C 58% 11.6 km/h SE 1018.3 hPa 0 mm
28 octobre 13:35 17.3°C 56% 12.7 km/h SE 1018.3 hPa 0 mm
28 octobre 13:34 17.4°C 57% 14.2 km/h SSE 1018.3 hPa 0 mm
28 octobre 13:33 17.2°C 57% 12.1 km/h SSE 1018.3 hPa 0 mm
28 octobre 13:32 17.2°C 57% 14.8 km/h S 1018.3 hPa 0 mm
28 octobre 13:31 17.4°C 56% 17.9 km/h S 1018.3 hPa 0 mm
28 octobre 13:30 17.6°C 57% 14.8 km/h SSE 1018.3 hPa 0 mm
28 octobre 13:29 17.6°C 58% 15.3 km/h SSO 1018.3 hPa 0 mm
28 octobre 13:28 17.6°C 58% 13.7 km/h S 1018.3 hPa 0 mm
28 octobre 13:27 17.5°C 58% 14.8 km/h SSE 1018.3 hPa 0 mm
28 octobre 13:26 17.6°C 59% 13.7 km/h S 1018.3 hPa 0 mm
28 octobre 13:25 17.4°C 58% 16.4 km/h S 1018.3 hPa 0 mm
28 octobre 13:24 17.6°C 59% 15.3 km/h S 1018.3 hPa 0 mm
28 octobre 13:23 17.4°C 59% 12.1 km/h S 1018.4 hPa 0 mm
28 octobre 13:22 17.4°C 59% 11.1 km/h SSO 1018.4 hPa 0 mm
28 octobre 13:21 17.3°C 59% 13.2 km/h SO 1018.4 hPa 0 mm
28 octobre 13:20 17.3°C 58% 17.4 km/h SSE 1018.3 hPa 0 mm
28 octobre 13:19 17.2°C 59% 13.7 km/h S 1018.3 hPa 0 mm
28 octobre 13:18 17.2°C 59% 15.3 km/h SSE 1018.4 hPa 0 mm
28 octobre 13:17 17.2°C 59% 14.8 km/h SSE 1018.4 hPa 0 mm
28 octobre 13:16 17.4°C 59% 16.9 km/h SSE 1018.4 hPa 0 mm
28 octobre 13:15 17.5°C 60% 11.1 km/h SE 1018.3 hPa 0 mm
28 octobre 13:14 17.5°C 60% 10.6 km/h ESE 1018.3 hPa 0 mm
28 octobre 13:13 17.5°C 60% 12.1 km/h S 1018.4 hPa 0 mm
28 octobre 13:12 17.3°C 59% 9.0 km/h SSE 1018.4 hPa 0 mm
28 octobre 13:11 17.3°C 59% 15.8 km/h SSE 1018.3 hPa 0 mm
28 octobre 13:10 17.2°C 60% 11.6 km/h SSE 1018.3 hPa 0 mm
28 octobre 13:09 17.3°C 59% 15.3 km/h S 1018.4 hPa 0 mm
28 octobre 13:08 17.3°C 60% 13.7 km/h SSE 1018.4 hPa 0 mm
28 octobre 13:07 17.3°C 60% 12.1 km/h S 1018.4 hPa 0 mm
28 octobre 13:06 17.3°C 60% 14.2 km/h SSE 1018.5 hPa 0 mm
28 octobre 13:05 17.2°C 60% 15.8 km/h S 1018.4 hPa 0 mm
28 octobre 13:04 17.1°C 59% 11.6 km/h SE 1018.4 hPa 0 mm
28 octobre 13:03 17.1°C 60% 14.8 km/h S 1018.4 hPa 0 mm
28 octobre 13:02 17.1°C 60% 13.7 km/h S 1018.5 hPa 0 mm
28 octobre 13:01 17.1°C 60% 16.4 km/h SSE 1018.4 hPa 0 mm
28 octobre 13:00 17.0°C 60% 12.1 km/h SSO 1018.5 hPa 0 mm
28 octobre 12:59 17.0°C 60% 11.6 km/h SSO 1018.5 hPa 0 mm
28 octobre 12:58 16.9°C 59% 18.5 km/h SSE 1018.5 hPa 0 mm
28 octobre 12:57 16.9°C 61% 19.5 km/h S 1018.5 hPa 0 mm
28 octobre 12:56 16.7°C 60% 17.9 km/h SSE 1018.5 hPa 0 mm
28 octobre 12:55 16.7°C 59% 22.2 km/h S 1018.6 hPa 0 mm
28 octobre 12:54 16.6°C 59% 17.9 km/h SSO 1018.6 hPa 0 mm
28 octobre 12:53 16.6°C 59% 25.3 km/h SSE 1018.5 hPa 0 mm
28 octobre 12:52 16.8°C 60% 20.6 km/h SSE 1018.6 hPa 0 mm
28 octobre 12:51 16.8°C 60% 22.7 km/h S 1018.6 hPa 0 mm
28 octobre 12:50 16.8°C 60% 20.1 km/h S 1018.6 hPa 0 mm
28 octobre 12:49 16.9°C 60% 21.1 km/h S 1018.7 hPa 0 mm
28 octobre 12:48 16.9°C 60% 20.1 km/h S 1018.6 hPa 0 mm
28 octobre 12:47 16.9°C 61% 12.1 km/h SE 1018.6 hPa 0 mm
28 octobre 12:46 16.9°C 61% 16.9 km/h S 1018.7 hPa 0 mm
28 octobre 12:45 17.0°C 60% 16.4 km/h S 1018.8 hPa 0 mm
28 octobre 12:44 17.1°C 61% 16.9 km/h S 1018.7 hPa 0 mm
28 octobre 12:43 17.1°C 61% 15.8 km/h SSE 1018.7 hPa 0 mm
28 octobre 12:42 17.2°C 62% 7.4 km/h SE 1018.7 hPa 0 mm
28 octobre 12:41 17.2°C 62% 14.2 km/h S 1018.7 hPa 0 mm
28 octobre 12:40 17.1°C 63% 15.3 km/h S 1018.8 hPa 0 mm
28 octobre 12:39 17.1°C 63% 12.7 km/h S 1018.8 hPa 0 mm
28 octobre 12:38 16.9°C 63% 15.3 km/h SSE 1018.8 hPa 0 mm
28 octobre 12:37 16.9°C 62% 15.8 km/h S 1018.8 hPa 0 mm
28 octobre 12:36 16.8°C 62% 14.2 km/h S 1018.8 hPa 0 mm
28 octobre 12:35 16.7°C 63% 12.1 km/h S 1018.8 hPa 0 mm
28 octobre 12:34 16.8°C 61% 20.1 km/h S 1018.8 hPa 0 mm
28 octobre 12:33 17.0°C 62% 19.5 km/h S 1018.8 hPa 0 mm
28 octobre 12:32 17.1°C 63% 11.6 km/h S 1018.8 hPa 0 mm
28 octobre 12:31 16.9°C 63% 10.6 km/h S 1018.8 hPa 0 mm
28 octobre 12:30 16.9°C 63% 12.1 km/h S 1018.9 hPa 0 mm
28 octobre 12:29 17.0°C 64% 20.6 km/h S 1018.9 hPa 0 mm
28 octobre 12:28 17.0°C 64% 17.9 km/h SSE 1018.9 hPa 0 mm
28 octobre 12:27 17.0°C 63% 13.2 km/h S 1018.9 hPa 0 mm
28 octobre 12:26 16.9°C 64% 11.1 km/h SSO 1018.9 hPa 0 mm
28 octobre 12:25 16.9°C 64% 11.1 km/h S 1018.9 hPa 0 mm
28 octobre 12:24 16.8°C 64% 10.0 km/h SSE 1018.9 hPa 0 mm
28 octobre 12:23 16.8°C 65% 11.6 km/h S 1019.0 hPa 0 mm
28 octobre 12:22 16.8°C 65% 15.8 km/h SSE 1019.0 hPa 0 mm
28 octobre 12:21 17.0°C 65% 10.0 km/h S 1019.0 hPa 0 mm
28 octobre 12:20 17.0°C 65% 11.6 km/h S 1019.1 hPa 0 mm
28 octobre 12:19 16.9°C 65% 10.0 km/h SSE 1019.1 hPa 0 mm
28 octobre 12:18 16.9°C 65% 10.0 km/h SSO 1019.1 hPa 0 mm
28 octobre 12:17 16.8°C 66% 8.4 km/h SSE 1019.1 hPa 0 mm
28 octobre 12:16 17.0°C 66% 11.1 km/h SSO 1019.1 hPa 0 mm
28 octobre 12:15 16.8°C 67% 8.4 km/h SSE 1019.1 hPa 0 mm
28 octobre 12:14 16.8°C 65% 10.0 km/h S 1019.0 hPa 0 mm
28 octobre 12:13 16.8°C 66% 7.9 km/h S 1019.1 hPa 0 mm
28 octobre 12:12 16.8°C 66% 8.4 km/h SSO 1019.1 hPa 0 mm
28 octobre 12:11 16.8°C 68% 9.0 km/h SSO 1019.0 hPa 0 mm
28 octobre 12:10 16.8°C 66% 9.0 km/h SSO 1019.1 hPa 0 mm
28 octobre 12:09 16.8°C 67% 7.4 km/h S 1019.0 hPa 0 mm
28 octobre 12:08 16.6°C 68% 8.4 km/h S 1019.1 hPa 0 mm
28 octobre 12:07 16.6°C 67% 10.0 km/h SSE 1019.1 hPa 0 mm
28 octobre 12:06 16.6°C 68% 6.3 km/h S 1019.2 hPa 0 mm
28 octobre 12:05 16.5°C 68% 4.2 km/h SSE 1019.1 hPa 0 mm
28 octobre 12:04 16.4°C 68% 5.8 km/h SSE 1019.1 hPa 0 mm
28 octobre 12:03 16.3°C 67% 12.7 km/h S 1019.1 hPa 0 mm
28 octobre 12:02 16.4°C 69% 13.2 km/h S 1019.1 hPa 0 mm
28 octobre 12:01 16.4°C 69% 13.2 km/h S 1019.2 hPa 0 mm
28 octobre 12:00 16.3°C 70% 13.7 km/h ESE 1019.2 hPa 0 mm
28 octobre 11:59 16.2°C 68% 16.9 km/h SO 1019.2 hPa 0 mm
28 octobre 11:58 16.2°C 70% 13.7 km/h SSO 1019.2 hPa 0 mm
28 octobre 11:57 16.2°C 68% 15.3 km/h SSE 1019.2 hPa 0 mm
28 octobre 11:56 16.2°C 69% 11.1 km/h SSO 1019.3 hPa 0 mm
28 octobre 11:55 16.3°C 70% 10.0 km/h SSE 1019.3 hPa 0 mm
28 octobre 11:54 16.2°C 69% 6.3 km/h SSE 1019.2 hPa 0 mm
28 octobre 11:53 16.2°C 69% 8.4 km/h SSE 1019.2 hPa 0 mm
28 octobre 11:52 16.2°C 69% 9.0 km/h S 1019.2 hPa 0 mm
28 octobre 11:51 16.3°C 71% 11.1 km/h S 1019.2 hPa 0 mm
28 octobre 11:50 16.2°C 70% 7.9 km/h SSE 1019.2 hPa 0 mm
28 octobre 11:49 16.1°C 70% 15.8 km/h S 1019.2 hPa 0 mm
28 octobre 11:48 16.1°C 70% 12.7 km/h SSE 1019.2 hPa 0 mm
28 octobre 11:47 16.1°C 72% 10.6 km/h SSO 1019.3 hPa 0 mm
28 octobre 11:46 16.0°C 69% 9.0 km/h ESE 1019.3 hPa 0 mm
28 octobre 11:45 16.0°C 71% 9.0 km/h SSE 1019.3 hPa 0 mm
28 octobre 11:44 16.1°C 71% 13.7 km/h SSO 1019.3 hPa 0 mm
28 octobre 11:43 16.0°C 71% 14.8 km/h SSO 1019.3 hPa 0 mm
28 octobre 11:42 16.0°C 71% 5.8 km/h SE 1019.3 hPa 0 mm
28 octobre 11:41 16.0°C 71% 10.0 km/h S 1019.3 hPa 0 mm
28 octobre 11:40 16.1°C 70% 10.0 km/h ESE 1019.3 hPa 0 mm
28 octobre 11:39 16.2°C 70% 6.9 km/h SSO 1019.3 hPa 0 mm
28 octobre 11:38 16.3°C 72% 6.3 km/h SSO 1019.4 hPa 0 mm
28 octobre 11:37 16.2°C 73% 4.8 km/h SSE 1019.5 hPa 0 mm
28 octobre 11:36 16.1°C 75% 3.2 km/h SE 1019.5 hPa 0 mm
28 octobre 11:35 15.9°C 72% 3.2 km/h SSE 1019.4 hPa 0 mm
28 octobre 11:34 16.0°C 74% 4.8 km/h ESE 1019.4 hPa 0 mm
28 octobre 11:33 16.0°C 73% 8.4 km/h SSO 1019.5 hPa 0 mm
28 octobre 11:32 16.0°C 75% 8.4 km/h SSO 1019.5 hPa 0 mm
28 octobre 11:31 16.0°C 74% 6.3 km/h S 1019.5 hPa 0 mm
28 octobre 11:30 16.1°C 74% 7.9 km/h SSE 1019.5 hPa 0 mm
28 octobre 11:29 16.1°C 76% 5.3 km/h ESE 1019.5 hPa 0 mm
28 octobre 11:28 16.1°C 76% 5.8 km/h S 1019.5 hPa 0 mm
28 octobre 11:27 16.0°C 76% 5.3 km/h S 1019.5 hPa 0 mm
28 octobre 11:26 15.9°C 77% 3.7 km/h SE 1019.5 hPa 0 mm
28 octobre 11:25 15.7°C 79% 3.2 km/h S 1019.5 hPa 0 mm
28 octobre 11:24 15.5°C 77% 3.2 km/h S 1019.4 hPa 0 mm
28 octobre 11:23 15.4°C 78% 5.3 km/h S 1019.5 hPa 0 mm
28 octobre 11:22 15.2°C 78% 4.8 km/h SSE 1019.5 hPa 0 mm
28 octobre 11:21 14.9°C 80% 4.8 km/h S 1019.5 hPa 0 mm
28 octobre 11:20 14.6°C 83% 4.2 km/h S 1019.5 hPa 0 mm
28 octobre 11:19 14.6°C 82% 3.2 km/h SO 1019.5 hPa 0 mm
28 octobre 11:18 14.6°C 82% 3.7 km/h SE 1019.5 hPa 0 mm
28 octobre 11:17 14.3°C 83% 2.6 km/h S 1019.5 hPa 0 mm
28 octobre 11:16 14.2°C 84% 2.1 km/h SO 1019.5 hPa 0 mm
28 octobre 11:15 14.2°C 84% 3.2 km/h SO 1019.5 hPa 0 mm
28 octobre 11:14 14.3°C 83% 2.6 km/h SSO 1019.5 hPa 0 mm
28 octobre 11:13 14.3°C 83% 3.7 km/h ENE 1019.5 hPa 0 mm
28 octobre 11:12 14.3°C 83% 2.1 km/h E 1019.6 hPa 0 mm
28 octobre 11:11 14.3°C 83% 0.5 km/h NE 1019.6 hPa 0 mm
28 octobre 11:10 14.1°C 84% 0.5 km/h NE 1019.5 hPa 0 mm
28 octobre 11:09 14.2°C 84% 2.6 km/h NE 1019.5 hPa 0 mm
28 octobre 11:08 14.1°C 85% 2.1 km/h S 1019.5 hPa 0 mm
28 octobre 11:07 14.0°C 85% 2.6 km/h NNE 1019.5 hPa 0 mm
28 octobre 11:06 14.0°C 86% 3.2 km/h N 1019.5 hPa 0 mm
28 octobre 11:05 13.9°C 86% 3.7 km/h ESE 1019.5 hPa 0 mm
28 octobre 11:04 13.9°C 86% 3.2 km/h ESE 1019.5 hPa 0 mm
28 octobre 11:03 13.7°C 86% 2.6 km/h ENE 1019.5 hPa 0 mm
28 octobre 11:02 13.6°C 86% 3.7 km/h NE 1019.5 hPa 0 mm
28 octobre 11:01 13.5°C 87% 2.6 km/h ESE 1019.5 hPa 0 mm
28 octobre 11:00 13.5°C 87% 1.1 km/h SE 1019.5 hPa 0 mm
28 octobre 10:59 13.1°C 87% 2.6 km/h NE 1019.5 hPa 0 mm
28 octobre 10:58 13.1°C 87% 2.1 km/h NE 1019.6 hPa 0 mm
28 octobre 10:57 12.9°C 87% 2.1 km/h N 1019.6 hPa 0 mm
28 octobre 10:56 12.9°C 87% 2.6 km/h N 1019.6 hPa 0 mm
28 octobre 10:55 12.8°C 87% 2.1 km/h SE 1019.6 hPa 0 mm
28 octobre 10:54 12.7°C 88% 3.2 km/h SO 1019.6 hPa 0 mm
28 octobre 10:53 12.7°C 88% 3.7 km/h E 1019.6 hPa 0 mm
28 octobre 10:52 12.6°C 87% 4.8 km/h NNE 1019.6 hPa 0 mm
28 octobre 10:51 12.5°C 88% 2.6 km/h SO 1019.7 hPa 0 mm
28 octobre 10:50 12.6°C 88% 2.1 km/h O 1019.6 hPa 0 mm
28 octobre 10:49 12.6°C 88% 1.6 km/h O 1019.6 hPa 0 mm
28 octobre 10:48 12.4°C 88% 2.1 km/h S 1019.6 hPa 0 mm
28 octobre 10:47 12.2°C 88% 2.1 km/h ENE 1019.6 hPa 0 mm
28 octobre 10:46 12.2°C 88% 1.6 km/h NE 1019.6 hPa 0 mm
28 octobre 10:45 12.1°C 89% 1.1 km/h NE 1019.6 hPa 0 mm
28 octobre 10:44 12.1°C 89% 1.6 km/h OSO 1019.6 hPa 0 mm
28 octobre 10:43 11.9°C 89% 2.6 km/h SO 1019.6 hPa 0 mm
28 octobre 10:42 11.9°C 89% 3.2 km/h ONO 1019.7 hPa 0 mm
28 octobre 10:41 11.8°C 90% 3.7 km/h SO 1019.7 hPa 0 mm
28 octobre 10:40 11.8°C 90% 3.2 km/h OSO 1019.6 hPa 0 mm
28 octobre 10:39 11.7°C 90% 2.1 km/h S 1019.6 hPa 0 mm
28 octobre 10:38 11.6°C 90% 2.6 km/h E 1019.6 hPa 0 mm
28 octobre 10:37 11.5°C 90% 3.2 km/h E 1019.6 hPa 0 mm
28 octobre 10:36 11.4°C 90% 3.2 km/h SSO 1019.7 hPa 0 mm
28 octobre 10:35 11.3°C 90% 2.1 km/h SO 1019.7 hPa 0 mm
28 octobre 10:34 11.2°C 90% 2.6 km/h SSO 1019.7 hPa 0 mm
28 octobre 10:33 11.1°C 91% 2.6 km/h SSO 1019.7 hPa 0 mm
28 octobre 10:32 11.0°C 91% 2.1 km/h SSO 1019.7 hPa 0 mm
28 octobre 10:31 11.0°C 91% 2.1 km/h NNE 1019.7 hPa 0 mm
28 octobre 10:30 11.0°C 91% 1.6 km/h S 1019.7 hPa 0 mm
28 octobre 10:29 10.9°C 91% 2.1 km/h NE 1019.8 hPa 0 mm
28 octobre 10:28 10.8°C 91% 2.6 km/h ESE 1019.8 hPa 0 mm
28 octobre 10:27 10.8°C 91% 2.1 km/h S 1019.8 hPa 0 mm
28 octobre 10:26 10.7°C 91% 2.1 km/h NE 1019.8 hPa 0 mm
28 octobre 10:25 10.7°C 91% 2.1 km/h OSO 1019.8 hPa 0 mm
28 octobre 10:24 10.7°C 91% 2.1 km/h SSO 1019.8 hPa 0 mm
28 octobre 10:23 10.6°C 91% 1.1 km/h NE 1019.8 hPa 0 mm
28 octobre 10:22 10.5°C 91% 1.6 km/h NNE 1019.9 hPa 0 mm
28 octobre 10:21 10.4°C 91% 1.1 km/h N 1019.8 hPa 0 mm
28 octobre 10:20 10.3°C 92% 1.1 km/h ESE 1019.8 hPa 0 mm
28 octobre 10:19 10.2°C 92% 1.6 km/h NNE 1019.8 hPa 0 mm
28 octobre 10:18 10.1°C 92% 1.6 km/h SSO 1019.8 hPa 0 mm
28 octobre 10:17 10.0°C 92% 1.6 km/h OSO 1019.8 hPa 0 mm
28 octobre 10:16 10.0°C 92% 1.6 km/h ENE 1019.8 hPa 0 mm
28 octobre 10:15 9.9°C 92% 0.5 km/h ENE 1019.8 hPa 0 mm
28 octobre 10:14 9.7°C 92% 0.0 km/h E 1019.8 hPa 0 mm
28 octobre 10:13 9.6°C 92% 1.1 km/h NE 1019.7 hPa 0 mm
28 octobre 10:12 9.5°C 92% 1.6 km/h NNE 1019.8 hPa 0 mm
28 octobre 10:11 9.5°C 93% 2.1 km/h ENE 1019.8 hPa 0 mm
28 octobre 10:10 9.4°C 92% 2.6 km/h O 1019.8 hPa 0 mm
28 octobre 10:09 9.3°C 92% 2.1 km/h SE 1019.7 hPa 0 mm
28 octobre 10:08 9.3°C 92% 2.1 km/h NE 1019.7 hPa 0 mm
28 octobre 10:07 9.2°C 92% 1.6 km/h NE 1019.8 hPa 0 mm
28 octobre 10:06 9.1°C 92% 1.1 km/h NNE 1019.7 hPa 0 mm
28 octobre 10:05 9.0°C 92% 1.6 km/h E 1019.7 hPa 0 mm
28 octobre 10:04 8.9°C 92% 2.1 km/h NNE 1019.8 hPa 0 mm
28 octobre 10:03 8.9°C 92% 2.1 km/h NNE 1019.8 hPa 0 mm
28 octobre 10:02 9.0°C 93% 2.6 km/h N 1019.8 hPa 0 mm
28 octobre 10:01 8.9°C 93% 2.1 km/h N 1019.8 hPa 0 mm
28 octobre 10:00 8.9°C 93% 2.1 km/h NNE 1019.8 hPa 0 mm
28 octobre 09:59 9.0°C 93% 1.6 km/h S 1019.8 hPa 0 mm
28 octobre 09:58 8.9°C 93% 2.1 km/h S 1019.9 hPa 0 mm
28 octobre 09:57 8.9°C 93% 1.6 km/h S 1019.9 hPa 0 mm
28 octobre 09:56 8.8°C 93% 2.1 km/h E 1019.9 hPa 0 mm
28 octobre 09:55 8.8°C 93% 1.6 km/h N 1019.9 hPa 0 mm
28 octobre 09:54 8.7°C 93% 1.6 km/h SO 1019.8 hPa 0 mm
28 octobre 09:53 8.7°C 93% 2.6 km/h ONO 1019.8 hPa 0 mm
28 octobre 09:52 8.6°C 93% 2.1 km/h OSO 1019.8 hPa 0 mm
28 octobre 09:51 8.6°C 93% 2.6 km/h OSO 1019.8 hPa 0 mm
28 octobre 09:50 8.5°C 94% 2.1 km/h E 1019.8 hPa 0 mm
28 octobre 09:49 8.4°C 94% 0.5 km/h OSO 1019.9 hPa 0 mm
28 octobre 09:48 8.3°C 94% 1.1 km/h S 1019.9 hPa 0 mm
28 octobre 09:47 8.2°C 94% 1.1 km/h ESE 1019.8 hPa 0 mm
28 octobre 09:46 8.2°C 94% 1.1 km/h NE 1019.8 hPa 0 mm
28 octobre 09:45 8.2°C 94% 0.5 km/h N 1019.8 hPa 0 mm
28 octobre 09:44 8.2°C 94% 1.1 km/h NE 1019.8 hPa 0 mm
28 octobre 09:43 8.1°C 94% 2.6 km/h NNE 1019.7 hPa 0 mm
28 octobre 09:42 8.1°C 94% 2.6 km/h NNE 1019.7 hPa 0 mm
28 octobre 09:41 8.1°C 94% 3.2 km/h NNE 1019.7 hPa 0 mm
28 octobre 09:40 8.1°C 94% 3.2 km/h NNE 1019.7 hPa 0 mm
28 octobre 09:39 8.2°C 94% 2.6 km/h NNE 1019.7 hPa 0 mm
28 octobre 09:38 8.2°C 95% 3.2 km/h N 1019.7 hPa 0 mm
28 octobre 09:37 8.2°C 95% 2.1 km/h N 1019.7 hPa 0 mm
28 octobre 09:36 8.3°C 95% 1.6 km/h N 1019.7 hPa 0 mm
28 octobre 09:35 8.3°C 95% 1.1 km/h SE 1019.7 hPa 0 mm
28 octobre 09:34 8.3°C 95% 1.1 km/h OSO 1019.6 hPa 0 mm
28 octobre 09:33 8.3°C 95% 0.0 km/h O 1019.7 hPa 0 mm
28 octobre 09:32 8.3°C 95% 0.0 km/h SE 1019.7 hPa 0 mm
28 octobre 09:31 8.4°C 95% 0.0 km/h SSE 1019.7 hPa 0 mm
28 octobre 09:30 8.2°C 95% 0.0 km/h SE 1019.7 hPa 0 mm
28 octobre 09:29 8.3°C 95% 0.0 km/h SSE 1019.7 hPa 0 mm
28 octobre 09:28 8.1°C 95% 1.1 km/h SSE 1019.6 hPa 0 mm
28 octobre 09:27 8.1°C 95% 1.6 km/h SSO 1019.6 hPa 0 mm
28 octobre 09:26 8.0°C 96% 0.0 km/h ENE 1019.7 hPa 0 mm
28 octobre 09:25 7.8°C 95% 0.0 km/h N 1019.7 hPa 0 mm
28 octobre 09:24 7.8°C 95% 0.5 km/h SSE 1019.6 hPa 0 mm
28 octobre 09:23 7.7°C 95% 1.6 km/h SSO 1019.7 hPa 0 mm
28 octobre 09:22 7.6°C 95% 1.6 km/h N 1019.7 hPa 0 mm
28 octobre 09:21 7.7°C 95% 2.1 km/h N 1019.7 hPa 0 mm
28 octobre 09:20 7.7°C 95% 2.6 km/h NE 1019.6 hPa 0 mm
28 octobre 09:19 7.6°C 95% 0.0 km/h NNE 1019.6 hPa 0 mm
28 octobre 09:18 7.6°C 95% 0.0 km/h N 1019.6 hPa 0 mm
28 octobre 09:17 7.5°C 96% 0.0 km/h NNE 1019.6 hPa 0 mm
28 octobre 09:16 7.5°C 96% 0.0 km/h NE 1019.6 hPa 0 mm
28 octobre 09:15 7.3°C 96% 0.0 km/h NE 1019.6 hPa 0 mm
28 octobre 09:14 7.3°C 96% 0.0 km/h NNE 1019.6 hPa 0 mm
28 octobre 09:13 7.3°C 96% 0.0 km/h NE 1019.6 hPa 0 mm
28 octobre 09:12 7.1°C 96% 0.0 km/h ENE 1019.6 hPa 0 mm
28 octobre 09:11 7.0°C 96% 0.0 km/h NE 1019.6 hPa 0 mm
28 octobre 09:10 7.0°C 96% 0.0 km/h NE 1019.6 hPa 0 mm
28 octobre 09:09 7.0°C 96% 0.0 km/h NE 1019.6 hPa 0 mm
28 octobre 09:08 6.9°C 96% 0.0 km/h NE 1019.5 hPa 0 mm
28 octobre 09:07 6.8°C 96% 0.0 km/h ENE 1019.5 hPa 0 mm
28 octobre 09:06 6.8°C 96% 0.0 km/h SSE 1019.5 hPa 0 mm
28 octobre 09:05 6.6°C 96% 0.0 km/h S 1019.5 hPa 0 mm
28 octobre 09:04 6.6°C 96% 1.6 km/h S 1019.5 hPa 0 mm
28 octobre 09:03 6.5°C 96% 0.0 km/h ESE 1019.6 hPa 0 mm
28 octobre 09:02 6.5°C 96% 1.1 km/h E 1019.6 hPa 0 mm
28 octobre 09:01 6.5°C 96% 0.0 km/h SSE 1019.6 hPa 0 mm
28 octobre 09:00 6.2°C 96% 1.1 km/h SSO 1019.6 hPa 0 mm
28 octobre 08:59 6.2°C 96% 1.6 km/h SSO 1019.6 hPa 0 mm
28 octobre 08:58 6.2°C 95% 1.1 km/h SE 1019.6 hPa 0 mm
28 octobre 08:57 6.2°C 96% 0.0 km/h S 1019.6 hPa 0 mm
28 octobre 08:56 6.0°C 95% 0.5 km/h SSE 1019.6 hPa 0 mm
28 octobre 08:55 6.1°C 95% 1.1 km/h S 1019.6 hPa 0 mm
28 octobre 08:54 6.2°C 96% 0.0 km/h SSO 1019.6 hPa 0 mm
28 octobre 08:53 6.2°C 96% 1.1 km/h SSO 1019.6 hPa 0 mm
28 octobre 08:52 6.0°C 95% 1.1 km/h SE 1019.6 hPa 0 mm
28 octobre 08:51 6.0°C 95% 0.0 km/h E 1019.6 hPa 0 mm
28 octobre 08:50 6.1°C 95% 0.0 km/h ESE 1019.6 hPa 0 mm
28 octobre 08:49 6.2°C 96% 0.0 km/h SE 1019.6 hPa 0 mm
28 octobre 08:48 6.0°C 96% 0.0 km/h ESE 1019.6 hPa 0 mm
28 octobre 08:47 6.1°C 96% 0.0 km/h ESE 1019.6 hPa 0 mm
28 octobre 08:46 6.1°C 96% 0.0 km/h SE 1019.6 hPa 0 mm
28 octobre 08:45 6.1°C 96% 0.0 km/h E 1019.6 hPa 0 mm
28 octobre 08:44 6.1°C 96% 0.0 km/h SE 1019.6 hPa 0 mm
28 octobre 08:43 6.1°C 96% 0.0 km/h SE 1019.6 hPa 0 mm
28 octobre 08:42 6.0°C 96% 0.0 km/h ESE 1019.6 hPa 0 mm
28 octobre 08:41 5.9°C 96% 0.0 km/h SE 1019.5 hPa 0 mm
28 octobre 08:40 5.8°C 96% 0.0 km/h SE 1019.6 hPa 0 mm
28 octobre 08:39 5.8°C 96% 0.0 km/h ESE 1019.5 hPa 0 mm
28 octobre 08:38 5.9°C 96% 0.0 km/h SE 1019.5 hPa 0 mm
28 octobre 08:37 5.9°C 96% 0.0 km/h ESE 1019.5 hPa 0 mm
28 octobre 08:36 5.9°C 96% 0.0 km/h SE 1019.6 hPa 0 mm
28 octobre 08:35 5.8°C 96% 0.0 km/h S 1019.6 hPa 0 mm
28 octobre 08:34 5.8°C 95% 0.0 km/h S 1019.6 hPa 0 mm
28 octobre 08:33 5.9°C 95% 0.0 km/h SE 1019.6 hPa 0 mm
28 octobre 08:32 6.0°C 95% 2.1 km/h S 1019.6 hPa 0 mm
28 octobre 08:31 6.1°C 95% 3.2 km/h S 1019.6 hPa 0 mm
28 octobre 08:30 6.1°C 95% 2.6 km/h SSE 1019.6 hPa 0 mm
28 octobre 08:29 6.2°C 95% 1.6 km/h SE 1019.5 hPa 0 mm
28 octobre 08:28 6.3°C 96% 2.1 km/h SE 1019.5 hPa 0 mm
28 octobre 08:27 6.3°C 96% 3.2 km/h E 1019.5 hPa 0 mm
28 octobre 08:26 6.3°C 96% 2.6 km/h E 1019.5 hPa 0 mm
28 octobre 08:25 6.3°C 96% 2.6 km/h ESE 1019.5 hPa 0 mm
28 octobre 08:24 6.1°C 96% 2.6 km/h E 1019.5 hPa 0 mm
28 octobre 08:23 6.0°C 96% 1.1 km/h ESE 1019.5 hPa 0 mm
28 octobre 08:22 6.0°C 96% 0.0 km/h SSE 1019.5 hPa 0 mm
28 octobre 08:21 5.9°C 96% 0.0 km/h SE 1019.5 hPa 0 mm
28 octobre 08:20 5.9°C 95% 0.0 km/h SE 1019.5 hPa 0 mm
28 octobre 08:19 6.1°C 96% 1.1 km/h SSO 1019.4 hPa 0 mm
28 octobre 08:18 6.1°C 96% 0.5 km/h SO 1019.4 hPa 0 mm
28 octobre 08:17 6.1°C 96% 0.0 km/h SSO 1019.4 hPa 0 mm
28 octobre 08:16 6.2°C 96% 0.0 km/h SSO 1019.3 hPa 0 mm
28 octobre 08:15 6.2°C 96% 0.5 km/h S 1019.3 hPa 0 mm
28 octobre 08:14 6.1°C 96% 1.1 km/h S 1019.3 hPa 0 mm
28 octobre 08:13 5.9°C 96% 0.0 km/h SE 1019.4 hPa 0 mm
28 octobre 08:12 5.9°C 96% 0.0 km/h SE 1019.3 hPa 0 mm
28 octobre 08:11 6.0°C 96% 0.0 km/h SE 1019.3 hPa 0 mm
28 octobre 08:10 6.0°C 96% 0.0 km/h SE 1019.3 hPa 0 mm
28 octobre 08:09 6.0°C 96% 0.0 km/h SSE 1019.3 hPa 0 mm
28 octobre 08:08 6.0°C 96% 0.0 km/h SSE 1019.3 hPa 0 mm
28 octobre 08:07 6.0°C 96% 0.0 km/h SSE 1019.4 hPa 0 mm
28 octobre 08:06 6.0°C 96% 0.0 km/h ESE 1019.4 hPa 0 mm
28 octobre 08:05 5.8°C 96% 0.0 km/h SE 1019.3 hPa 0 mm
28 octobre 08:04 5.6°C 95% 0.0 km/h SE 1019.3 hPa 0 mm
28 octobre 08:03 5.7°C 96% 0.0 km/h ESE 1019.4 hPa 0 mm
28 octobre 08:02 5.7°C 96% 0.0 km/h SE 1019.4 hPa 0 mm
28 octobre 08:01 5.7°C 95% 0.0 km/h SE 1019.4 hPa 0 mm
28 octobre 08:00 5.7°C 96% 0.5 km/h ESE 1019.4 hPa 0 mm
28 octobre 07:59 5.8°C 96% 0.0 km/h S 1019.4 hPa 0 mm
28 octobre 07:58 5.6°C 96% 1.1 km/h SSE 1019.4 hPa 0 mm
28 octobre 07:57 5.5°C 95% 1.6 km/h SSE 1019.4 hPa 0 mm
28 octobre 07:56 5.7°C 95% 2.1 km/h SSE 1019.4 hPa 0 mm
28 octobre 07:55 5.7°C 95% 2.1 km/h SSE 1019.4 hPa 0 mm
28 octobre 07:54 5.8°C 95% 1.6 km/h SSE 1019.4 hPa 0 mm
28 octobre 07:53 5.8°C 96% 1.1 km/h SE 1019.4 hPa 0 mm
28 octobre 07:52 5.8°C 95% 0.5 km/h SSE 1019.4 hPa 0 mm
28 octobre 07:51 5.9°C 95% 0.0 km/h SE 1019.4 hPa 0 mm
28 octobre 07:50 5.9°C 95% 1.1 km/h SE 1019.4 hPa 0 mm
28 octobre 07:49 5.9°C 95% 0.0 km/h SSE 1019.4 hPa 0 mm
28 octobre 07:48 6.3°C 96% 0.5 km/h SE 1019.4 hPa 0 mm
28 octobre 07:48 6.1°C 95% 0.5 km/h ESE 1019.4 hPa 0 mm
28 octobre 07:47 6.3°C 96% 0.0 km/h SSE 1019.5 hPa 0 mm
28 octobre 07:46 6.4°C 96% 0.5 km/h SE 1019.5 hPa 0 mm
28 octobre 07:45 6.4°C 96% 0.0 km/h SSE 1019.5 hPa 0 mm
28 octobre 07:44 6.3°C 96% 0.0 km/h SE 1019.5 hPa 0 mm
28 octobre 07:43 6.3°C 96% 0.5 km/h SE 1019.5 hPa 0 mm
28 octobre 07:42 6.3°C 96% 0.5 km/h ESE 1019.5 hPa 0 mm
28 octobre 07:41 6.3°C 96% 2.1 km/h E 1019.5 hPa 0 mm
28 octobre 07:40 6.2°C 96% 1.6 km/h E 1019.5 hPa 0 mm
28 octobre 07:39 6.0°C 96% 0.0 km/h SE 1019.5 hPa 0 mm
28 octobre 07:38 5.8°C 96% 2.6 km/h SSE 1019.6 hPa 0 mm
28 octobre 07:37 5.6°C 96% 2.6 km/h SO 1019.5 hPa 0 mm
28 octobre 07:36 5.5°C 95% 2.1 km/h SSO 1019.6 hPa 0 mm
28 octobre 07:35 5.6°C 95% 2.6 km/h S 1019.5 hPa 0.14 mm
28 octobre 07:34 5.6°C 95% 3.2 km/h S 1019.5 hPa 0 mm
28 octobre 07:33 5.8°C 95% 3.7 km/h SSO 1019.6 hPa 0 mm
28 octobre 07:32 6.0°C 95% 2.1 km/h SO 1019.6 hPa 0 mm
28 octobre 07:31 6.2°C 95% 4.8 km/h S 1019.5 hPa 0 mm
28 octobre 07:30 6.6°C 96% 4.2 km/h SSE 1019.5 hPa 0 mm
28 octobre 07:29 6.6°C 96% 1.6 km/h E 1019.5 hPa 0 mm
28 octobre 07:28 6.5°C 96% 1.6 km/h SE 1019.5 hPa 0 mm
28 octobre 07:27 6.4°C 96% 1.6 km/h SE 1019.5 hPa 0 mm
28 octobre 07:26 6.3°C 96% 1.6 km/h SE 1019.5 hPa 0 mm
28 octobre 07:25 6.3°C 96% 2.1 km/h ESE 1019.6 hPa 0 mm
28 octobre 07:24 6.2°C 96% 3.7 km/h ESE 1019.6 hPa 0 mm
28 octobre 07:23 6.0°C 96% 3.2 km/h SE 1019.6 hPa 0 mm
28 octobre 07:22 5.6°C 96% 1.6 km/h SE 1019.6 hPa 0 mm
28 octobre 07:21 5.3°C 96% 1.1 km/h SE 1019.6 hPa 0 mm
28 octobre 07:20 5.4°C 95% 0.0 km/h SE 1019.6 hPa 0 mm
28 octobre 07:19 5.7°C 95% 0.0 km/h SE 1019.6 hPa 0 mm
28 octobre 07:18 5.7°C 95% 0.0 km/h ESE 1019.6 hPa 0 mm
28 octobre 07:17 5.8°C 95% 0.0 km/h SSE 1019.6 hPa 0 mm
28 octobre 07:16 6.0°C 95% 0.0 km/h S 1019.6 hPa 0 mm
28 octobre 07:15 6.2°C 96% 0.0 km/h SSE 1019.6 hPa 0 mm
28 octobre 07:14 6.2°C 96% 0.0 km/h SE 1019.6 hPa 0 mm
28 octobre 07:13 6.2°C 96% 0.5 km/h SE 1019.6 hPa 0 mm
28 octobre 07:12 6.2°C 96% 0.0 km/h SE 1019.6 hPa 0 mm
28 octobre 07:11 6.2°C 96% 0.5 km/h SSE 1019.6 hPa 0 mm
28 octobre 07:10 6.1°C 96% 0.5 km/h ESE 1019.6 hPa 0 mm
28 octobre 07:09 6.0°C 96% 1.6 km/h SE 1019.6 hPa 0 mm
28 octobre 07:08 5.9°C 96% 1.6 km/h ESE 1019.6 hPa 0 mm
28 octobre 07:07 5.5°C 96% 1.6 km/h SE 1019.6 hPa 0 mm
28 octobre 07:06 5.2°C 96% 1.6 km/h S 1019.7 hPa 0 mm
28 octobre 07:05 5.1°C 95% 1.1 km/h SE 1019.7 hPa 0 mm
28 octobre 07:04 5.4°C 96% 2.1 km/h ESE 1019.7 hPa 0 mm
28 octobre 07:03 5.4°C 96% 2.1 km/h SO 1019.7 hPa 0 mm
28 octobre 07:02 5.3°C 96% 2.6 km/h SSE 1019.7 hPa 0 mm
28 octobre 07:01 5.1°C 95% 2.1 km/h S 1019.7 hPa 0 mm
28 octobre 07:00 5.1°C 95% 1.6 km/h SSO 1019.7 hPa 0 mm
28 octobre 06:59 5.3°C 95% 0.5 km/h SSO 1019.7 hPa 0 mm
28 octobre 06:58 5.4°C 95% 0.0 km/h S 1019.7 hPa 0 mm
28 octobre 06:57 5.4°C 95% 0.0 km/h SE 1019.7 hPa 0 mm
28 octobre 06:56 5.7°C 95% 0.0 km/h SSE 1019.6 hPa 0 mm
28 octobre 06:55 5.7°C 96% 0.5 km/h SE 1019.7 hPa 0 mm
28 octobre 06:54 5.7°C 96% 1.1 km/h SE 1019.7 hPa 0 mm
28 octobre 06:53 5.5°C 96% 0.0 km/h SE 1019.7 hPa 0 mm
28 octobre 06:52 5.3°C 95% 0.0 km/h SE 1019.6 hPa 0 mm
28 octobre 06:51 5.5°C 95% 0.0 km/h SE 1019.7 hPa 0 mm
28 octobre 06:50 5.9°C 95% 0.5 km/h SE 1019.7 hPa 0 mm
28 octobre 06:49 6.2°C 95% 1.6 km/h S 1019.7 hPa 0 mm
28 octobre 06:48 6.2°C 95% 2.1 km/h SSO 1019.7 hPa 0 mm
28 octobre 06:47 6.5°C 96% 1.1 km/h SE 1019.7 hPa 0 mm
28 octobre 06:46 6.5°C 96% 2.1 km/h SE 1019.7 hPa 0 mm
28 octobre 06:45 6.5°C 96% 2.1 km/h SE 1019.7 hPa 0 mm
28 octobre 06:44 6.5°C 96% 1.1 km/h SE 1019.8 hPa 0 mm
28 octobre 06:43 6.5°C 96% 1.6 km/h ESE 1019.7 hPa 0 mm
28 octobre 06:42 6.4°C 96% 2.6 km/h SE 1019.7 hPa 0 mm
28 octobre 06:41 6.4°C 96% 2.1 km/h ESE 1019.7 hPa 0 mm
28 octobre 06:40 6.4°C 96% 2.6 km/h E 1019.7 hPa 0 mm
28 octobre 06:39 6.4°C 96% 2.6 km/h E 1019.7 hPa 0 mm
28 octobre 06:38 6.3°C 96% 1.1 km/h SE 1019.8 hPa 0 mm
28 octobre 06:37 6.4°C 96% 0.5 km/h SE 1019.7 hPa 0 mm
28 octobre 06:36 6.4°C 96% 3.2 km/h ESE 1019.7 hPa 0 mm
28 octobre 06:35 6.2°C 96% 3.2 km/h ESE 1019.7 hPa 0 mm
28 octobre 06:34 6.2°C 96% 0.0 km/h SSO 1019.7 hPa 0 mm
28 octobre 06:33 5.9°C 96% 0.5 km/h SE 1019.7 hPa 0 mm
28 octobre 06:32 5.6°C 96% 1.1 km/h ESE 1019.7 hPa 0 mm
28 octobre 06:31 5.6°C 96% 2.1 km/h SSE 1019.7 hPa 0 mm
28 octobre 06:30 5.5°C 96% 2.6 km/h S 1019.7 hPa 0 mm
28 octobre 06:29 5.5°C 96% 2.6 km/h SO 1019.8 hPa 0 mm
28 octobre 06:28 5.2°C 95% 2.6 km/h SO 1019.8 hPa 0 mm
28 octobre 06:27 5.2°C 95% 3.2 km/h S 1019.8 hPa 0 mm
28 octobre 06:26 5.7°C 96% 2.6 km/h ESE 1019.8 hPa 0 mm
28 octobre 06:25 5.6°C 96% 2.1 km/h SO 1019.8 hPa 0 mm
28 octobre 06:24 5.6°C 96% 2.6 km/h OSO 1019.8 hPa 0 mm
28 octobre 06:23 5.6°C 96% 2.1 km/h SO 1019.8 hPa 0 mm
28 octobre 06:22 5.6°C 96% 1.6 km/h S 1019.8 hPa 0 mm
28 octobre 06:21 5.3°C 96% 2.1 km/h S 1019.8 hPa 0 mm
28 octobre 06:20 5.3°C 95% 0.5 km/h S 1019.8 hPa 0 mm
28 octobre 06:19 5.3°C 96% 1.1 km/h S 1019.8 hPa 0 mm
28 octobre 06:18 5.3°C 95% 1.6 km/h S 1019.8 hPa 0 mm
28 octobre 06:17 5.3°C 95% 2.1 km/h SSO 1019.7 hPa 0 mm
28 octobre 06:16 5.3°C 95% 2.1 km/h S 1019.7 hPa 0 mm
28 octobre 06:15 5.3°C 96% 1.6 km/h SSO 1019.8 hPa 0 mm
28 octobre 06:14 5.2°C 95% 2.1 km/h SSO 1019.7 hPa 0 mm
28 octobre 06:13 5.2°C 95% 2.1 km/h O 1019.7 hPa 0 mm
28 octobre 06:12 5.2°C 95% 1.6 km/h SO 1019.8 hPa 0 mm
28 octobre 06:11 5.2°C 95% 1.6 km/h SO 1019.8 hPa 0 mm
28 octobre 06:10 5.2°C 95% 2.1 km/h S 1019.7 hPa 0 mm
28 octobre 06:09 5.3°C 95% 1.6 km/h S 1019.8 hPa 0 mm
28 octobre 06:08 5.3°C 95% 1.6 km/h SSE 1019.8 hPa 0 mm
28 octobre 06:07 5.4°C 95% 1.6 km/h SSE 1019.8 hPa 0 mm
28 octobre 06:06 5.5°C 96% 0.5 km/h SE 1019.8 hPa 0 mm
28 octobre 06:05 5.3°C 96% 1.1 km/h ESE 1019.8 hPa 0 mm
28 octobre 06:04 5.2°C 95% 1.1 km/h SSE 1019.7 hPa 0 mm
28 octobre 06:03 5.1°C 95% 0.0 km/h SE 1019.7 hPa 0 mm
28 octobre 06:02 5.2°C 95% 1.1 km/h SE 1019.7 hPa 0 mm
28 octobre 06:01 5.2°C 95% 1.1 km/h S 1019.7 hPa 0 mm
28 octobre 06:00 5.4°C 95% 1.6 km/h S 1019.7 hPa 0 mm
28 octobre 05:59 5.4°C 95% 1.6 km/h S 1019.7 hPa 0 mm
28 octobre 05:58 5.4°C 95% 0.0 km/h ESE 1019.7 hPa 0 mm
28 octobre 05:57 5.4°C 95% 0.0 km/h SSE 1019.7 hPa 0 mm
28 octobre 05:56 5.4°C 95% 0.0 km/h SE 1019.7 hPa 0 mm
28 octobre 05:55 5.4°C 95% 0.0 km/h SSE 1019.7 hPa 0 mm
28 octobre 05:54 5.4°C 95% 0.0 km/h SE 1019.7 hPa 0 mm
28 octobre 05:53 5.5°C 95% 0.0 km/h SE 1019.7 hPa 0 mm
28 octobre 05:52 5.5°C 95% 0.0 km/h SE 1019.7 hPa 0 mm
28 octobre 05:51 5.5°C 95% 0.0 km/h SE 1019.7 hPa 0 mm
28 octobre 05:50 5.4°C 95% 1.1 km/h SE 1019.7 hPa 0 mm
28 octobre 05:49 5.2°C 95% 0.0 km/h SSE 1019.7 hPa 0 mm
28 octobre 05:48 5.0°C 95% 0.0 km/h SE 1019.7 hPa 0 mm
28 octobre 05:47 5.0°C 95% 1.1 km/h SSE 1019.6 hPa 0 mm
28 octobre 05:46 4.9°C 95% 2.1 km/h SSE 1019.7 hPa 0 mm
28 octobre 05:45 4.9°C 95% 0.0 km/h SSE 1019.6 hPa 0 mm
28 octobre 05:44 5.0°C 95% 0.5 km/h E 1019.6 hPa 0 mm
28 octobre 05:43 5.3°C 95% 0.0 km/h ESE 1019.6 hPa 0 mm
28 octobre 05:42 5.3°C 95% 1.6 km/h S 1019.6 hPa 0 mm
28 octobre 05:41 5.3°C 95% 1.6 km/h S 1019.6 hPa 0 mm
28 octobre 05:40 5.3°C 95% 1.1 km/h SSE 1019.6 hPa 0 mm
28 octobre 05:39 5.3°C 95% 0.0 km/h ESE 1019.7 hPa 0 mm
28 octobre 05:38 5.3°C 95% 0.5 km/h SE 1019.7 hPa 0 mm
28 octobre 05:37 5.4°C 95% 1.6 km/h SSE 1019.7 hPa 0 mm
28 octobre 05:36 5.4°C 95% 0.5 km/h E 1019.7 hPa 0 mm
28 octobre 05:35 5.4°C 95% 1.1 km/h SE 1019.7 hPa 0 mm
28 octobre 05:34 5.5°C 95% 1.6 km/h S 1019.7 hPa 0 mm
28 octobre 05:33 5.3°C 95% 1.1 km/h S 1019.7 hPa 0 mm
28 octobre 05:32 5.4°C 95% 0.0 km/h E 1019.7 hPa 0 mm
28 octobre 05:31 5.4°C 95% 1.1 km/h SE 1019.7 hPa 0.14 mm
28 octobre 05:30 5.4°C 94% 1.1 km/h SSE 1019.7 hPa 0 mm
28 octobre 05:29 5.6°C 95% 2.1 km/h SSE 1019.8 hPa 0 mm
28 octobre 05:28 5.6°C 95% 0.0 km/h SE 1019.7 hPa 0 mm
28 octobre 05:27 5.5°C 95% 0.5 km/h SE 1019.7 hPa 0 mm
28 octobre 05:26 5.5°C 95% 1.1 km/h SE 1019.7 hPa 0 mm
28 octobre 05:25 5.5°C 95% 1.1 km/h SE 1019.6 hPa 0 mm
28 octobre 05:24 5.5°C 95% 0.0 km/h SSE 1019.7 hPa 0 mm
28 octobre 05:23 5.3°C 95% 0.0 km/h SE 1019.7 hPa 0 mm
28 octobre 05:22 5.2°C 95% 0.5 km/h ESE 1019.7 hPa 0 mm
28 octobre 05:21 5.1°C 94% 1.6 km/h SE 1019.8 hPa 0 mm
28 octobre 05:20 5.3°C 94% 2.1 km/h SSE 1019.8 hPa 0 mm
28 octobre 05:19 5.6°C 94% 0.0 km/h SE 1019.8 hPa 0 mm
28 octobre 05:18 5.7°C 94% 0.5 km/h SE 1019.8 hPa 0 mm
28 octobre 05:17 5.7°C 94% 0.5 km/h SE 1019.8 hPa 0 mm
28 octobre 05:16 5.8°C 94% 1.1 km/h SSE 1019.7 hPa 0 mm
28 octobre 05:15 5.8°C 94% 2.1 km/h S 1019.7 hPa 0 mm
28 octobre 05:14 5.8°C 94% 0.0 km/h SSE 1019.7 hPa 0 mm
28 octobre 05:13 5.8°C 94% 0.0 km/h SSE 1019.8 hPa 0 mm
28 octobre 05:12 5.7°C 94% 0.0 km/h S 1019.8 hPa 0 mm
28 octobre 05:11 5.8°C 94% 0.0 km/h SE 1019.7 hPa 0 mm
28 octobre 05:10 5.8°C 94% 0.5 km/h SE 1019.8 hPa 0 mm
28 octobre 05:09 5.8°C 94% 2.1 km/h ESE 1019.8 hPa 0 mm
28 octobre 05:08 5.8°C 94% 0.0 km/h SE 1019.8 hPa 0 mm
28 octobre 05:07 5.8°C 94% 0.0 km/h ESE 1019.8 hPa 0 mm
28 octobre 05:06 5.8°C 94% 1.1 km/h ESE 1019.8 hPa 0 mm
28 octobre 05:05 5.8°C 93% 2.6 km/h ESE 1019.8 hPa 0 mm
28 octobre 05:04 5.9°C 93% 2.6 km/h SE 1019.9 hPa 0 mm
28 octobre 05:03 5.9°C 93% 0.0 km/h SSE 1019.9 hPa 0 mm
28 octobre 05:02 6.0°C 93% 0.0 km/h SE 1019.9 hPa 0 mm
28 octobre 05:01 6.2°C 93% 1.6 km/h SE 1019.9 hPa 0 mm
28 octobre 05:00 6.3°C 93% 0.5 km/h SE 1019.9 hPa 0 mm
28 octobre 04:59 6.3°C 93% 0.0 km/h SE 1019.9 hPa 0 mm
28 octobre 04:58 6.4°C 93% 0.0 km/h SSE 1019.9 hPa 0 mm
28 octobre 04:57 6.5°C 93% 0.0 km/h SSE 1019.9 hPa 0 mm
28 octobre 04:56 6.6°C 93% 0.5 km/h SSE 1019.9 hPa 0 mm
28 octobre 04:55 6.8°C 93% 1.1 km/h SE 1019.9 hPa 0 mm
28 octobre 04:54 6.8°C 93% 1.1 km/h SSE 1019.9 hPa 0 mm
28 octobre 04:53 7.0°C 93% 1.1 km/h ESE 1019.9 hPa 0 mm
28 octobre 04:52 7.2°C 93% 2.1 km/h SE 1019.9 hPa 0 mm
28 octobre 04:51 7.1°C 93% 3.7 km/h ESE 1019.9 hPa 0 mm
28 octobre 04:50 7.2°C 93% 3.2 km/h SE 1019.9 hPa 0 mm
28 octobre 04:49 7.2°C 93% 4.2 km/h SE 1019.9 hPa 0 mm
28 octobre 04:48 7.2°C 93% 3.2 km/h SE 1019.9 hPa 0 mm
28 octobre 04:47 7.3°C 93% 2.6 km/h SE 1019.9 hPa 0 mm
28 octobre 04:46 7.5°C 93% 2.1 km/h ESE 1019.9 hPa 0 mm
28 octobre 04:45 7.7°C 93% 3.7 km/h E 1019.9 hPa 0 mm
28 octobre 04:44 7.7°C 93% 3.7 km/h E 1020.0 hPa 0 mm
28 octobre 04:43 7.7°C 93% 3.2 km/h E 1020.0 hPa 0 mm
28 octobre 04:42 7.7°C 94% 3.7 km/h E 1020.0 hPa 0 mm
28 octobre 04:41 7.6°C 94% 4.2 km/h E 1020.0 hPa 0 mm
28 octobre 04:40 7.6°C 94% 4.2 km/h E 1020.0 hPa 0 mm
28 octobre 04:39 7.6°C 94% 4.2 km/h E 1020.0 hPa 0 mm
28 octobre 04:38 7.5°C 94% 4.2 km/h E 1020.0 hPa 0 mm
28 octobre 04:37 7.5°C 94% 4.8 km/h E 1020.0 hPa 0 mm
28 octobre 04:36 7.5°C 94% 2.6 km/h E 1020.0 hPa 0 mm
28 octobre 04:35 7.4°C 94% 3.2 km/h E 1020.1 hPa 0 mm
28 octobre 04:34 7.3°C 94% 3.7 km/h E 1020.1 hPa 0 mm
28 octobre 04:33 7.1°C 94% 3.7 km/h E 1020.1 hPa 0 mm
28 octobre 04:32 6.7°C 94% 4.8 km/h ENE 1020.1 hPa 0 mm
28 octobre 04:31 6.7°C 94% 5.3 km/h ENE 1020.1 hPa 0 mm
28 octobre 04:30 6.5°C 93% 2.1 km/h E 1020.1 hPa 0 mm
28 octobre 04:29 6.6°C 93% 2.6 km/h E 1020.1 hPa 0 mm
28 octobre 04:28 6.6°C 93% 2.6 km/h ENE 1020.1 hPa 0 mm
28 octobre 04:27 6.8°C 93% 3.2 km/h E 1020.1 hPa 0 mm
28 octobre 04:26 6.8°C 93% 3.7 km/h E 1020.1 hPa 0 mm
28 octobre 04:25 6.8°C 93% 2.6 km/h E 1020.2 hPa 0 mm
28 octobre 04:24 6.8°C 93% 2.1 km/h E 1020.2 hPa 0 mm
28 octobre 04:23 7.0°C 93% 1.6 km/h E 1020.2 hPa 0 mm
28 octobre 04:22 7.0°C 93% 3.2 km/h ESE 1020.3 hPa 0 mm
28 octobre 04:21 7.1°C 93% 2.6 km/h ESE 1020.3 hPa 0 mm
28 octobre 04:20 7.0°C 93% 3.2 km/h ESE 1020.3 hPa 0 mm
28 octobre 04:19 7.0°C 93% 3.2 km/h E 1020.3 hPa 0 mm
28 octobre 04:18 7.0°C 93% 3.2 km/h ESE 1020.3 hPa 0 mm
28 octobre 04:17 7.2°C 93% 1.6 km/h SE 1020.2 hPa 0 mm
28 octobre 04:16 7.2°C 92% 2.1 km/h SE 1020.2 hPa 0 mm
28 octobre 04:15 7.5°C 92% 3.2 km/h ESE 1020.3 hPa 0 mm
28 octobre 04:14 7.7°C 92% 3.7 km/h ESE 1020.3 hPa 0 mm
28 octobre 04:13 7.9°C 93% 5.3 km/h ESE 1020.3 hPa 0 mm
28 octobre 04:12 7.9°C 93% 4.8 km/h ESE 1020.3 hPa 0 mm
28 octobre 04:11 7.8°C 93% 5.3 km/h E 1020.3 hPa 0 mm
28 octobre 04:10 8.0°C 93% 4.8 km/h ESE 1020.3 hPa 0 mm
28 octobre 04:09 8.1°C 93% 3.7 km/h E 1020.3 hPa 0 mm
28 octobre 04:08 8.0°C 93% 5.3 km/h ENE 1020.3 hPa 0 mm
28 octobre 04:07 8.0°C 94% 5.3 km/h E 1020.3 hPa 0 mm
28 octobre 04:06 7.9°C 94% 5.8 km/h E 1020.4 hPa 0 mm
28 octobre 04:05 7.7°C 94% 5.8 km/h E 1020.3 hPa 0 mm
28 octobre 04:04 7.7°C 94% 5.8 km/h E 1020.4 hPa 0 mm
28 octobre 04:03 7.6°C 94% 5.8 km/h E 1020.4 hPa 0 mm
28 octobre 04:02 7.3°C 94% 5.3 km/h E 1020.4 hPa 0 mm
28 octobre 04:01 7.2°C 94% 4.8 km/h E 1020.4 hPa 0 mm
28 octobre 04:00 7.1°C 94% 3.2 km/h ESE 1020.4 hPa 0 mm
28 octobre 03:59 7.0°C 94% 4.2 km/h SE 1020.4 hPa 0 mm
28 octobre 03:58 7.0°C 94% 3.7 km/h ESE 1020.5 hPa 0 mm
28 octobre 03:57 7.0°C 94% 3.7 km/h ESE 1020.5 hPa 0 mm
28 octobre 03:56 7.0°C 93% 3.2 km/h SE 1020.5 hPa 0 mm
28 octobre 03:55 7.0°C 93% 4.2 km/h ESE 1020.5 hPa 0 mm
28 octobre 03:54 7.1°C 93% 4.2 km/h SE 1020.5 hPa 0 mm
28 octobre 03:53 7.2°C 94% 5.3 km/h ESE 1020.5 hPa 0 mm
28 octobre 03:52 7.2°C 94% 5.3 km/h ESE 1020.5 hPa 0 mm
28 octobre 03:51 7.0°C 94% 3.7 km/h SE 1020.5 hPa 0 mm
28 octobre 03:50 7.1°C 93% 4.2 km/h SE 1020.5 hPa 0 mm
28 octobre 03:49 7.1°C 93% 3.7 km/h ESE 1020.5 hPa 0 mm
28 octobre 03:48 7.3°C 93% 3.2 km/h SE 1020.6 hPa 0 mm
28 octobre 03:47 7.6°C 94% 4.2 km/h ESE 1020.6 hPa 0 mm
28 octobre 03:46 7.4°C 94% 5.3 km/h ESE 1020.6 hPa 0 mm
28 octobre 03:45 7.4°C 94% 4.8 km/h SE 1020.6 hPa 0 mm
28 octobre 03:44 7.3°C 94% 4.8 km/h SE 1020.6 hPa 0 mm
28 octobre 03:43 7.3°C 94% 4.8 km/h ESE 1020.6 hPa 0 mm
28 octobre 03:42 7.2°C 94% 5.3 km/h SE 1020.6 hPa 0 mm
28 octobre 03:41 7.0°C 93% 5.3 km/h ESE 1020.5 hPa 0 mm
28 octobre 03:40 7.1°C 93% 4.8 km/h ESE 1020.6 hPa 0 mm
28 octobre 03:39 7.4°C 93% 2.1 km/h SE 1020.6 hPa 0 mm
28 octobre 03:38 7.8°C 93% 4.2 km/h SE 1020.6 hPa 0 mm
28 octobre 03:37 8.1°C 94% 5.3 km/h ESE 1020.5 hPa 0 mm
28 octobre 03:36 8.1°C 94% 4.8 km/h ESE 1020.6 hPa 0 mm
28 octobre 03:35 8.0°C 94% 3.7 km/h ESE 1020.6 hPa 0 mm
28 octobre 03:34 7.8°C 95% 5.8 km/h ESE 1020.7 hPa 0 mm
28 octobre 03:33 7.6°C 95% 5.8 km/h E 1020.6 hPa 0 mm
28 octobre 03:32 7.5°C 95% 5.8 km/h ESE 1020.7 hPa 0 mm
28 octobre 03:31 7.4°C 95% 5.3 km/h ESE 1020.6 hPa 0 mm
28 octobre 03:30 7.3°C 95% 5.8 km/h ESE 1020.6 hPa 0 mm
28 octobre 03:29 7.3°C 95% 5.8 km/h ESE 1020.7 hPa 0 mm
28 octobre 03:28 7.2°C 95% 5.3 km/h ESE 1020.7 hPa 0 mm
28 octobre 03:27 6.9°C 95% 5.3 km/h ESE 1020.6 hPa 0 mm
28 octobre 03:26 6.9°C 95% 5.8 km/h E 1020.7 hPa 0 mm
28 octobre 03:25 7.0°C 95% 6.3 km/h ESE 1020.8 hPa 0 mm
28 octobre 03:24 7.1°C 95% 5.3 km/h E 1020.8 hPa 0 mm
28 octobre 03:23 7.2°C 95% 4.8 km/h ESE 1020.8 hPa 0 mm
28 octobre 03:22 6.9°C 95% 4.8 km/h E 1020.8 hPa 0 mm
28 octobre 03:21 6.9°C 95% 5.3 km/h ESE 1020.8 hPa 0 mm
28 octobre 03:20 7.0°C 95% 4.8 km/h ESE 1020.7 hPa 0 mm
28 octobre 03:19 6.8°C 95% 4.2 km/h ESE 1020.8 hPa 0 mm
28 octobre 03:18 6.8°C 95% 3.2 km/h ESE 1020.8 hPa 0 mm
28 octobre 03:17 6.7°C 95% 2.6 km/h ESE 1020.8 hPa 0 mm
28 octobre 03:16 6.7°C 95% 2.6 km/h SE 1020.8 hPa 0 mm
28 octobre 03:15 6.8°C 95% 3.7 km/h ESE 1020.8 hPa 0 mm
28 octobre 03:14 6.8°C 95% 3.7 km/h E 1020.8 hPa 0 mm
28 octobre 03:13 6.8°C 95% 5.3 km/h ESE 1020.8 hPa 0 mm
28 octobre 03:12 6.6°C 95% 4.8 km/h ESE 1020.8 hPa 0 mm
28 octobre 03:11 6.6°C 95% 3.2 km/h ESE 1020.8 hPa 0 mm
28 octobre 03:10 6.5°C 95% 2.6 km/h SE 1020.8 hPa 0 mm
28 octobre 03:09 6.6°C 95% 1.1 km/h SE 1020.9 hPa 0 mm
28 octobre 03:08 6.6°C 95% 3.2 km/h SE 1020.8 hPa 0 mm
28 octobre 03:07 6.5°C 95% 3.2 km/h E 1020.7 hPa 0 mm
28 octobre 03:06 6.2°C 96% 3.2 km/h SE 1020.8 hPa 0 mm
28 octobre 03:05 6.0°C 95% 2.6 km/h SE 1020.8 hPa 0 mm
28 octobre 03:04 6.0°C 95% 1.1 km/h ESE 1020.8 hPa 0 mm
28 octobre 03:03 5.9°C 95% 3.7 km/h E 1020.8 hPa 0 mm
28 octobre 03:02 5.9°C 95% 3.7 km/h ESE 1020.8 hPa 0 mm
28 octobre 03:01 5.9°C 95% 3.7 km/h ESE 1020.8 hPa 0 mm
28 octobre 03:00 5.9°C 95% 1.6 km/h ESE 1020.8 hPa 0 mm
28 octobre 02:59 6.0°C 95% 1.6 km/h ESE 1020.8 hPa 0 mm
28 octobre 02:58 6.0°C 95% 3.2 km/h SE 1020.8 hPa 0 mm
28 octobre 02:57 6.0°C 96% 4.8 km/h E 1020.8 hPa 0 mm
28 octobre 02:56 5.7°C 95% 5.3 km/h E 1020.8 hPa 0 mm
28 octobre 02:55 5.5°C 95% 4.2 km/h ESE 1020.8 hPa 0 mm
28 octobre 02:54 5.4°C 95% 2.1 km/h SE 1020.9 hPa 0 mm
28 octobre 02:53 5.4°C 95% 1.6 km/h SE 1020.9 hPa 0 mm
28 octobre 02:52 5.5°C 95% 2.1 km/h SE 1020.9 hPa 0.14 mm
28 octobre 02:51 5.6°C 95% 2.1 km/h SE 1020.9 hPa 0 mm
28 octobre 02:50 5.6°C 95% 2.1 km/h SSE 1020.8 hPa 0 mm
28 octobre 02:49 5.7°C 95% 1.6 km/h SE 1020.8 hPa 0 mm
28 octobre 02:48 5.8°C 95% 2.1 km/h ESE 1020.8 hPa 0 mm
28 octobre 02:47 5.8°C 95% 2.6 km/h ESE 1020.8 hPa 0 mm
28 octobre 02:46 5.8°C 95% 1.6 km/h ESE 1020.8 hPa 0 mm
28 octobre 02:45 6.0°C 95% 1.6 km/h SE 1020.8 hPa 0 mm
28 octobre 02:44 6.0°C 95% 2.1 km/h SE 1020.9 hPa 0 mm
28 octobre 02:43 6.2°C 95% 2.6 km/h ESE 1020.8 hPa 0 mm
28 octobre 02:42 6.3°C 95% 2.6 km/h SE 1020.8 hPa 0 mm
28 octobre 02:41 6.3°C 95% 1.6 km/h ESE 1020.8 hPa 0 mm
28 octobre 02:40 6.4°C 95% 1.1 km/h SE 1020.8 hPa 0 mm
28 octobre 02:39 6.4°C 95% 1.1 km/h SE 1020.8 hPa 0 mm
28 octobre 02:38 6.4°C 95% 1.1 km/h SE 1020.8 hPa 0 mm
28 octobre 02:37 6.5°C 95% 1.6 km/h ESE 1020.8 hPa 0 mm
28 octobre 02:36 6.4°C 95% 1.1 km/h SE 1020.8 hPa 0 mm
28 octobre 02:35 6.4°C 95% 0.5 km/h ESE 1020.8 hPa 0 mm
28 octobre 02:34 6.3°C 96% 2.1 km/h SE 1020.9 hPa 0 mm
28 octobre 02:33 5.9°C 96% 3.2 km/h ESE 1020.9 hPa 0 mm
28 octobre 02:32 5.3°C 95% 3.2 km/h SE 1020.9 hPa 0 mm
28 octobre 02:31 5.2°C 95% 2.1 km/h SE 1020.8 hPa 0 mm
28 octobre 02:30 5.4°C 95% 1.6 km/h SE 1020.8 hPa 0 mm
28 octobre 02:29 5.5°C 95% 1.1 km/h SE 1020.8 hPa 0 mm
28 octobre 02:28 5.5°C 95% 1.1 km/h SE 1020.9 hPa 0 mm
28 octobre 02:27 5.5°C 95% 0.5 km/h SE 1020.9 hPa 0 mm
28 octobre 02:26 5.5°C 95% 2.1 km/h SE 1020.8 hPa 0 mm
28 octobre 02:25 5.5°C 95% 2.6 km/h SE 1020.8 hPa 0 mm
28 octobre 02:24 5.5°C 95% 2.1 km/h SE 1020.8 hPa 0 mm
28 octobre 02:23 5.5°C 95% 1.6 km/h SSE 1020.8 hPa 0 mm
28 octobre 02:22 5.7°C 95% 1.6 km/h SE 1020.9 hPa 0 mm
28 octobre 02:21 5.8°C 95% 1.6 km/h SE 1020.9 hPa 0 mm
28 octobre 02:20 6.0°C 95% 0.5 km/h SSE 1020.9 hPa 0 mm
28 octobre 02:19 6.1°C 95% 1.1 km/h SE 1020.9 hPa 0 mm
28 octobre 02:18 6.1°C 95% 1.6 km/h SE 1020.9 hPa 0 mm
28 octobre 02:17 6.1°C 95% 2.1 km/h SE 1020.9 hPa 0 mm
28 octobre 02:16 5.9°C 95% 2.1 km/h ESE 1020.9 hPa 0 mm
28 octobre 02:15 6.0°C 95% 1.1 km/h SE 1020.9 hPa 0 mm
28 octobre 02:14 5.9°C 95% 2.1 km/h ESE 1020.9 hPa 0 mm
28 octobre 02:13 5.9°C 95% 2.1 km/h ESE 1020.9 hPa 0 mm
28 octobre 02:12 6.0°C 95% 1.1 km/h SE 1020.9 hPa 0 mm
28 octobre 02:11 6.0°C 95% 0.5 km/h SE 1021.0 hPa 0 mm
28 octobre 02:10 5.8°C 95% 0.5 km/h SE 1020.9 hPa 0 mm
28 octobre 02:09 5.7°C 95% 0.0 km/h SSE 1020.9 hPa 0 mm
28 octobre 02:08 5.7°C 95% 0.5 km/h SSE 1021.0 hPa 0 mm
28 octobre 02:07 5.7°C 95% 0.5 km/h SE 1020.9 hPa 0 mm
28 octobre 02:06 5.6°C 95% 0.5 km/h SE 1020.9 hPa 0 mm
28 octobre 02:05 5.6°C 95% 1.1 km/h SE 1020.9 hPa 0 mm
28 octobre 02:04 6.0°C 95% 0.5 km/h SE 1020.9 hPa 0 mm
28 octobre 02:03 6.2°C 95% 1.1 km/h E 1020.9 hPa 0 mm
28 octobre 02:02 6.2°C 95% 0.0 km/h ESE 1020.9 hPa 0 mm
28 octobre 02:01 6.2°C 95% 0.0 km/h SSE 1020.9 hPa 0 mm
28 octobre 02:00 6.3°C 95% 0.5 km/h ESE 1021.0 hPa 0 mm
28 octobre 01:59 6.3°C 95% 1.1 km/h SE 1021.0 hPa 0 mm
28 octobre 01:58 6.2°C 95% 2.1 km/h E 1021.0 hPa 0 mm
28 octobre 01:57 6.2°C 95% 2.1 km/h E 1021.0 hPa 0 mm
28 octobre 01:56 6.2°C 95% 2.6 km/h E 1021.0 hPa 0 mm
28 octobre 01:55 6.4°C 95% 2.1 km/h E 1020.9 hPa 0 mm
28 octobre 01:54 6.4°C 95% 2.1 km/h ESE 1021.0 hPa 0 mm
28 octobre 01:53 6.4°C 95% 2.1 km/h SE 1021.0 hPa 0 mm
28 octobre 01:52 6.3°C 95% 1.1 km/h ESE 1021.0 hPa 0 mm
28 octobre 01:51 6.4°C 95% 0.0 km/h E 1021.0 hPa 0 mm
28 octobre 01:50 6.4°C 95% 0.5 km/h SE 1021.0 hPa 0 mm
28 octobre 01:49 6.4°C 95% 0.5 km/h SE 1021.0 hPa 0 mm
28 octobre 01:48 6.4°C 95% 0.5 km/h ESE 1021.0 hPa 0 mm
28 octobre 01:47 6.4°C 95% 1.6 km/h SE 1021.0 hPa 0 mm
28 octobre 01:46 6.3°C 95% 0.0 km/h SE 1021.0 hPa 0 mm
28 octobre 01:45 6.1°C 95% 0.0 km/h SSE 1021.0 hPa 0 mm
28 octobre 01:44 6.0°C 95% 0.5 km/h SSE 1021.0 hPa 0 mm
28 octobre 01:43 6.0°C 95% 0.0 km/h SE 1021.0 hPa 0 mm
28 octobre 01:42 6.0°C 96% 0.5 km/h S 1021.0 hPa 0 mm
28 octobre 01:41 6.0°C 96% 0.5 km/h SE 1021.0 hPa 0 mm
28 octobre 01:40 5.8°C 95% 0.0 km/h SSE 1021.0 hPa 0 mm
28 octobre 01:39 5.8°C 95% 1.1 km/h SSE 1021.0 hPa 0 mm
28 octobre 01:38 6.0°C 95% 0.5 km/h SE 1021.0 hPa 0 mm
28 octobre 01:37 6.2°C 95% 1.6 km/h SE 1021.0 hPa 0 mm
28 octobre 01:36 6.5°C 95% 2.1 km/h SE 1021.0 hPa 0 mm
28 octobre 01:35 6.8°C 95% 2.6 km/h SE 1021.0 hPa 0 mm
28 octobre 01:34 6.9°C 96% 4.2 km/h E 1021.0 hPa 0 mm
28 octobre 01:33 6.9°C 96% 3.7 km/h ESE 1021.1 hPa 0 mm
28 octobre 01:32 6.9°C 96% 3.2 km/h ESE 1021.1 hPa 0 mm
28 octobre 01:31 6.7°C 95% 3.2 km/h ESE 1021.1 hPa 0 mm
28 octobre 01:30 6.7°C 95% 1.1 km/h ESE 1021.1 hPa 0 mm
28 octobre 01:29 7.0°C 95% 0.5 km/h S 1021.0 hPa 0 mm
28 octobre 01:28 7.0°C 95% 1.1 km/h SSE 1021.1 hPa 0 mm
28 octobre 01:27 7.2°C 96% 1.6 km/h SE 1021.1 hPa 0 mm
28 octobre 01:26 7.1°C 96% 0.5 km/h ESE 1021.1 hPa 0 mm
28 octobre 01:25 7.0°C 96% 0.5 km/h SE 1021.1 hPa 0 mm
28 octobre 01:24 6.9°C 95% 0.0 km/h SSE 1021.1 hPa 0 mm
28 octobre 01:23 7.0°C 96% 0.0 km/h SSE 1021.1 hPa 0 mm
28 octobre 01:22 6.8°C 96% 0.0 km/h SSE 1021.1 hPa 0 mm
28 octobre 01:21 6.7°C 95% 0.0 km/h SSE 1021.1 hPa 0 mm
28 octobre 01:20 6.7°C 95% 0.0 km/h ESE 1021.2 hPa 0 mm
28 octobre 01:19 6.8°C 96% 0.5 km/h SE 1021.2 hPa 0 mm
28 octobre 01:18 6.6°C 95% 0.5 km/h SSE 1021.2 hPa 0 mm
28 octobre 01:17 6.7°C 96% 1.1 km/h S 1021.2 hPa 0 mm
28 octobre 01:16 6.5°C 96% 1.6 km/h S 1021.2 hPa 0 mm
28 octobre 01:15 6.3°C 95% 1.6 km/h S 1021.2 hPa 0 mm
28 octobre 01:14 6.3°C 96% 1.1 km/h SE 1021.2 hPa 0 mm
28 octobre 01:13 6.3°C 96% 1.1 km/h S 1021.1 hPa 0 mm
28 octobre 01:12 6.3°C 96% 1.1 km/h SSE 1021.2 hPa 0 mm
28 octobre 01:11 6.1°C 95% 1.1 km/h S 1021.2 hPa 0 mm
28 octobre 01:10 6.1°C 96% 1.6 km/h S 1021.2 hPa 0 mm
28 octobre 01:09 6.1°C 95% 1.6 km/h SSE 1021.2 hPa 0 mm
28 octobre 01:08 6.1°C 95% 1.1 km/h S 1021.2 hPa 0 mm
28 octobre 01:07 6.1°C 95% 1.6 km/h SO 1021.2 hPa 0 mm
28 octobre 01:06 6.1°C 95% 1.6 km/h S 1021.1 hPa 0 mm
28 octobre 01:05 6.2°C 95% 1.6 km/h S 1021.2 hPa 0 mm
28 octobre 01:04 6.2°C 95% 1.6 km/h S 1021.3 hPa 0 mm
28 octobre 01:03 6.1°C 95% 1.6 km/h S 1021.2 hPa 0 mm
28 octobre 01:02 6.1°C 96% 1.6 km/h S 1021.2 hPa 0 mm
28 octobre 01:01 6.1°C 96% 1.6 km/h SSE 1021.2 hPa 0 mm
28 octobre 01:00 6.0°C 95% 1.6 km/h S 1021.2 hPa 0 mm
28 octobre 00:59 5.9°C 95% 2.1 km/h SSE 1021.2 hPa 0 mm
28 octobre 00:58 6.0°C 95% 1.1 km/h SE 1021.2 hPa 0 mm
28 octobre 00:57 6.1°C 95% 2.1 km/h ESE 1021.2 hPa 0 mm
28 octobre 00:56 6.3°C 95% 2.1 km/h SSE 1021.2 hPa 0 mm
28 octobre 00:55 6.3°C 95% 2.6 km/h SSE 1021.2 hPa 0 mm
28 octobre 00:54 6.4°C 95% 2.1 km/h SE 1021.2 hPa 0 mm
28 octobre 00:53 6.3°C 96% 2.1 km/h SE 1021.2 hPa 0 mm
28 octobre 00:52 6.0°C 96% 1.6 km/h SSE 1021.3 hPa 0 mm
28 octobre 00:51 5.8°C 96% 2.1 km/h ESE 1021.3 hPa 0 mm
28 octobre 00:50 5.7°C 95% 3.2 km/h SE 1021.3 hPa 0 mm
28 octobre 00:49 5.7°C 95% 2.1 km/h SSE 1021.3 hPa 0 mm
28 octobre 00:48 5.6°C 95% 3.2 km/h ESE 1021.2 hPa 0 mm
28 octobre 00:47 5.8°C 95% 3.7 km/h SSE 1021.2 hPa 0 mm
28 octobre 00:46 5.8°C 95% 2.6 km/h SE 1021.3 hPa 0 mm
28 octobre 00:45 5.9°C 95% 2.6 km/h SE 1021.3 hPa 0 mm
28 octobre 00:44 5.9°C 95% 2.6 km/h SSE 1021.3 hPa 0 mm
28 octobre 00:43 5.9°C 95% 2.6 km/h SE 1021.3 hPa 0 mm
28 octobre 00:42 5.8°C 95% 3.2 km/h SSE 1021.3 hPa 0 mm
28 octobre 00:41 5.9°C 95% 2.6 km/h ESE 1021.3 hPa 0 mm
28 octobre 00:40 6.0°C 95% 2.6 km/h SSE 1021.3 hPa 0 mm
28 octobre 00:39 6.3°C 95% 2.1 km/h SE 1021.3 hPa 0 mm
28 octobre 00:38 6.3°C 95% 2.1 km/h S 1021.3 hPa 0 mm
28 octobre 00:37 6.2°C 95% 2.1 km/h SE 1021.3 hPa 0 mm
28 octobre 00:36 6.4°C 95% 1.6 km/h SE 1021.3 hPa 0 mm
28 octobre 00:35 6.5°C 95% 1.6 km/h SSE 1021.3 hPa 0 mm
28 octobre 00:34 6.4°C 95% 1.6 km/h SSE 1021.3 hPa 0 mm
28 octobre 00:33 6.5°C 95% 2.6 km/h ESE 1021.3 hPa 0 mm
28 octobre 00:32 6.6°C 95% 3.2 km/h S 1021.3 hPa 0 mm
28 octobre 00:31 6.6°C 95% 2.1 km/h SE 1021.3 hPa 0 mm
28 octobre 00:30 6.7°C 95% 1.6 km/h SE 1021.3 hPa 0 mm
28 octobre 00:29 6.6°C 96% 0.0 km/h SE 1021.3 hPa 0 mm
28 octobre 00:28 6.4°C 95% 0.5 km/h SE 1021.4 hPa 0 mm
28 octobre 00:27 6.4°C 95% 2.1 km/h SE 1021.4 hPa 0 mm
28 octobre 00:26 6.4°C 95% 2.1 km/h SSE 1021.4 hPa 0 mm
28 octobre 00:25 6.4°C 95% 2.1 km/h SSE 1021.4 hPa 0 mm
28 octobre 00:24 6.4°C 95% 2.1 km/h SE 1021.4 hPa 0 mm
28 octobre 00:23 6.6°C 95% 2.1 km/h SE 1021.4 hPa 0 mm
28 octobre 00:22 6.7°C 95% 2.6 km/h ESE 1021.4 hPa 0 mm
28 octobre 00:21 6.7°C 95% 2.1 km/h SE 1021.4 hPa 0 mm
28 octobre 00:20 6.9°C 95% 1.6 km/h ESE 1021.4 hPa 0 mm
28 octobre 00:19 6.8°C 95% 2.1 km/h SE 1021.4 hPa 0 mm
28 octobre 00:18 6.8°C 95% 2.6 km/h SE 1021.4 hPa 0 mm
28 octobre 00:17 6.8°C 95% 2.1 km/h SSE 1021.4 hPa 0 mm
28 octobre 00:16 6.7°C 96% 2.1 km/h SE 1021.4 hPa 0 mm
28 octobre 00:15 6.7°C 95% 2.1 km/h SE 1021.3 hPa 0 mm
28 octobre 00:14 6.7°C 95% 2.1 km/h SSE 1021.4 hPa 0 mm
28 octobre 00:13 6.7°C 95% 2.1 km/h SSE 1021.4 hPa 0 mm
28 octobre 00:12 6.8°C 95% 2.1 km/h SSE 1021.3 hPa 0 mm
28 octobre 00:11 6.8°C 95% 2.1 km/h SE 1021.3 hPa 0 mm
28 octobre 00:10 6.8°C 95% 2.1 km/h SE 1021.4 hPa 0 mm
28 octobre 00:09 6.9°C 95% 2.1 km/h SSE 1021.4 hPa 0 mm
28 octobre 00:08 6.9°C 95% 2.1 km/h SSE 1021.4 hPa 0 mm
28 octobre 00:07 6.9°C 95% 1.6 km/h SSE 1021.4 hPa 0 mm
28 octobre 00:06 6.9°C 95% 1.6 km/h SSE 1021.4 hPa 0 mm
28 octobre 00:05 6.9°C 95% 2.1 km/h SE 1021.4 hPa 0 mm
28 octobre 00:04 6.9°C 95% 2.1 km/h SE 1021.4 hPa 0 mm
28 octobre 00:03 7.0°C 95% 1.6 km/h ESE 1021.5 hPa 0 mm
28 octobre 00:02 7.1°C 95% 2.1 km/h SSE 1021.4 hPa 0 mm
28 octobre 00:01 7.1°C 95% 2.6 km/h S 1021.4 hPa 0 mm
28 octobre 00:00 7.1°C 96% 2.1 km/h SE 1021.4 hPa 0 mm
27 octobre 23:59 6.9°C 96% 2.6 km/h SE 1021.5 hPa 0 mm
27 octobre 23:58 6.7°C 96% 1.6 km/h SE 1021.5 hPa 0 mm
27 octobre 23:57 6.7°C 95% 2.1 km/h S 1021.5 hPa 0 mm
27 octobre 23:56 6.7°C 95% 2.6 km/h SE 1021.5 hPa 0 mm
27 octobre 23:55 6.6°C 95% 2.6 km/h S 1021.5 hPa 0 mm
27 octobre 23:54 6.6°C 95% 2.1 km/h SE 1021.5 hPa 0 mm
27 octobre 23:53 6.6°C 95% 2.6 km/h S 1021.5 hPa 0 mm
27 octobre 23:52 6.7°C 95% 2.1 km/h SSE 1021.5 hPa 0 mm
27 octobre 23:51 6.8°C 95% 2.1 km/h SSO 1021.5 hPa 0 mm
27 octobre 23:50 6.9°C 95% 2.1 km/h S 1021.5 hPa 0 mm
27 octobre 23:49 6.9°C 95% 2.1 km/h S 1021.5 hPa 0 mm
27 octobre 23:48 6.9°C 95% 2.1 km/h SO 1021.6 hPa 0 mm
27 octobre 23:47 6.9°C 95% 2.1 km/h S 1021.5 hPa 0 mm
27 octobre 23:46 7.0°C 95% 2.1 km/h S 1021.6 hPa 0 mm
27 octobre 23:45 7.0°C 95% 2.1 km/h S 1021.6 hPa 0 mm
27 octobre 23:44 7.0°C 95% 2.1 km/h S 1021.6 hPa 0 mm
27 octobre 23:43 7.0°C 95% 1.6 km/h S 1021.6 hPa 0 mm
27 octobre 23:42 7.1°C 95% 2.1 km/h S 1021.6 hPa 0 mm
27 octobre 23:41 7.0°C 95% 2.1 km/h S 1021.6 hPa 0 mm
27 octobre 23:40 7.0°C 95% 2.1 km/h SSO 1021.6 hPa 0 mm
27 octobre 23:39 7.1°C 95% 2.6 km/h S 1021.6 hPa 0 mm
27 octobre 23:38 7.2°C 95% 2.1 km/h S 1021.6 hPa 0 mm
27 octobre 23:37 7.2°C 95% 2.6 km/h S 1021.5 hPa 0 mm
27 octobre 23:36 7.1°C 95% 2.1 km/h S 1021.5 hPa 0 mm
27 octobre 23:35 6.9°C 95% 2.6 km/h S 1021.5 hPa 0 mm
27 octobre 23:34 6.9°C 95% 2.1 km/h S 1021.6 hPa 0 mm
27 octobre 23:33 6.9°C 95% 3.2 km/h S 1021.6 hPa 0 mm
27 octobre 23:32 7.0°C 95% 2.6 km/h S 1021.6 hPa 0 mm
27 octobre 23:31 7.0°C 95% 2.6 km/h SSO 1021.6 hPa 0 mm
27 octobre 23:30 7.0°C 95% 2.6 km/h SSE 1021.5 hPa 0 mm
27 octobre 23:29 7.0°C 95% 2.1 km/h SSE 1021.6 hPa 0 mm
27 octobre 23:28 6.9°C 95% 2.6 km/h S 1021.6 hPa 0 mm
27 octobre 23:27 7.0°C 95% 2.6 km/h S 1021.6 hPa 0 mm
27 octobre 23:26 7.2°C 95% 2.6 km/h S 1021.6 hPa 0 mm
27 octobre 23:25 7.1°C 95% 2.1 km/h SE 1021.6 hPa 0 mm
27 octobre 23:24 7.0°C 95% 2.6 km/h S 1021.6 hPa 0 mm
27 octobre 23:23 7.0°C 95% 2.1 km/h SE 1021.6 hPa 0 mm
27 octobre 23:22 6.9°C 95% 3.2 km/h SSE 1021.6 hPa 0 mm
27 octobre 23:21 6.7°C 95% 3.2 km/h SSE 1021.6 hPa 0 mm
27 octobre 23:20 6.7°C 95% 3.7 km/h S 1021.6 hPa 0 mm
27 octobre 23:19 6.8°C 95% 3.7 km/h S 1021.6 hPa 0 mm
27 octobre 23:18 7.0°C 95% 2.6 km/h S 1021.6 hPa 0 mm
27 octobre 23:17 7.0°C 95% 3.2 km/h S 1021.6 hPa 0 mm
27 octobre 23:16 7.0°C 95% 3.2 km/h SSO 1021.6 hPa 0 mm
27 octobre 23:15 7.1°C 95% 2.1 km/h S 1021.6 hPa 0 mm
27 octobre 23:14 7.0°C 95% 2.1 km/h S 1021.6 hPa 0 mm
27 octobre 23:13 7.0°C 95% 2.1 km/h S 1021.6 hPa 0 mm
27 octobre 23:12 7.0°C 95% 2.1 km/h S 1021.6 hPa 0 mm
27 octobre 23:11 7.0°C 95% 1.6 km/h SSE 1021.5 hPa 0 mm
27 octobre 23:10 6.8°C 95% 1.6 km/h SSO 1021.5 hPa 0 mm
27 octobre 23:09 6.8°C 95% 1.6 km/h SSO 1021.5 hPa 0 mm
27 octobre 23:08 6.8°C 95% 1.6 km/h S 1021.5 hPa 0 mm
27 octobre 23:07 6.8°C 95% 2.1 km/h SSE 1021.5 hPa 0 mm
27 octobre 23:06 6.9°C 95% 2.1 km/h SSE 1021.5 hPa 0 mm
27 octobre 23:05 7.0°C 95% 2.1 km/h ESE 1021.5 hPa 0 mm
27 octobre 23:04 6.9°C 95% 2.1 km/h SE 1021.5 hPa 0 mm
27 octobre 23:03 6.8°C 95% 2.1 km/h S 1021.4 hPa 0 mm
27 octobre 23:02 6.8°C 95% 2.1 km/h S 1021.5 hPa 0 mm
27 octobre 23:01 6.7°C 95% 2.1 km/h SE 1021.5 hPa 0 mm
27 octobre 23:00 6.7°C 95% 2.1 km/h SSE 1021.5 hPa 0 mm
27 octobre 22:59 6.7°C 95% 2.6 km/h SSE 1021.5 hPa 0 mm
27 octobre 22:58 6.5°C 95% 2.6 km/h SO 1021.4 hPa 0 mm
27 octobre 22:57 6.4°C 95% 2.6 km/h SSO 1021.5 hPa 0 mm
27 octobre 22:56 6.3°C 95% 2.1 km/h S 1021.4 hPa 0 mm
27 octobre 22:55 6.4°C 95% 2.1 km/h SSE 1021.4 hPa 0 mm
27 octobre 22:54 6.5°C 95% 2.6 km/h SSE 1021.4 hPa 0 mm
27 octobre 22:53 6.5°C 95% 2.1 km/h S 1021.4 hPa 0 mm
27 octobre 22:52 6.4°C 95% 1.6 km/h SSO 1021.4 hPa 0 mm
27 octobre 22:51 6.5°C 95% 2.1 km/h SO 1021.3 hPa 0 mm
27 octobre 22:50 6.5°C 95% 1.6 km/h SSO 1021.3 hPa 0 mm
27 octobre 22:49 6.5°C 95% 2.1 km/h S 1021.4 hPa 0 mm
27 octobre 22:48 6.5°C 95% 1.6 km/h SSO 1021.4 hPa 0 mm
27 octobre 22:47 6.5°C 95% 1.6 km/h SE 1021.3 hPa 0 mm
27 octobre 22:46 6.5°C 95% 0.5 km/h SSE 1021.4 hPa 0 mm
27 octobre 22:45 6.6°C 95% 0.0 km/h SSE 1021.4 hPa 0 mm
27 octobre 22:44 6.6°C 95% 0.0 km/h SE 1021.4 hPa 0 mm
27 octobre 22:43 6.7°C 95% 0.0 km/h SSE 1021.4 hPa 0 mm
27 octobre 22:42 6.6°C 95% 0.0 km/h SE 1021.4 hPa 0 mm
27 octobre 22:41 6.6°C 95% 0.5 km/h SE 1021.3 hPa 0 mm
27 octobre 22:40 6.7°C 95% 1.1 km/h SE 1021.4 hPa 0 mm
27 octobre 22:39 6.7°C 95% 1.1 km/h SE 1021.4 hPa 0 mm
27 octobre 22:38 6.5°C 95% 0.5 km/h SE 1021.4 hPa 0 mm
27 octobre 22:37 6.5°C 95% 0.0 km/h SE 1021.4 hPa 0 mm
27 octobre 22:36 6.3°C 95% 0.0 km/h SE 1021.4 hPa 0 mm
27 octobre 22:35 6.2°C 95% 0.0 km/h SE 1021.4 hPa 0 mm
27 octobre 22:34 6.2°C 95% 0.0 km/h ESE 1021.4 hPa 0 mm
27 octobre 22:33 6.2°C 95% 0.0 km/h SE 1021.4 hPa 0 mm
27 octobre 22:32 6.2°C 95% 0.0 km/h SE 1021.4 hPa 0 mm
27 octobre 22:31 6.2°C 95% 0.0 km/h ESE 1021.4 hPa 0 mm
27 octobre 22:30 6.2°C 95% 0.0 km/h SE 1021.4 hPa 0 mm
27 octobre 22:29 6.2°C 95% 0.0 km/h SE 1021.4 hPa 0 mm
27 octobre 22:28 6.2°C 94% 0.0 km/h SE 1021.4 hPa 0 mm
27 octobre 22:27 6.3°C 95% 0.0 km/h SE 1021.4 hPa 0 mm
27 octobre 22:26 6.3°C 94% 0.0 km/h SE 1021.4 hPa 0 mm
27 octobre 22:25 6.3°C 94% 0.0 km/h SE 1021.4 hPa 0 mm
27 octobre 22:24 6.5°C 95% 0.0 km/h SE 1021.4 hPa 0 mm
27 octobre 22:23 6.5°C 95% 0.0 km/h SE 1021.4 hPa 0 mm
27 octobre 22:22 6.4°C 95% 0.0 km/h SE 1021.5 hPa 0 mm
27 octobre 22:21 6.3°C 94% 0.0 km/h SE 1021.5 hPa 0 mm
27 octobre 22:20 6.5°C 95% 0.0 km/h ESE 1021.5 hPa 0 mm
27 octobre 22:19 6.6°C 95% 0.0 km/h SSE 1021.4 hPa 0 mm
27 octobre 22:18 6.6°C 95% 0.0 km/h S 1021.4 hPa 0 mm
27 octobre 22:17 6.6°C 95% 0.0 km/h ESE 1021.4 hPa 0 mm
27 octobre 22:16 6.6°C 95% 0.0 km/h ESE 1021.5 hPa 0 mm
27 octobre 22:15 6.4°C 95% 1.1 km/h SE 1021.5 hPa 0 mm
27 octobre 22:14 6.3°C 95% 0.0 km/h SSE 1021.4 hPa 0 mm
27 octobre 22:13 6.3°C 95% 1.1 km/h SSE 1021.5 hPa 0 mm
27 octobre 22:12 6.1°C 95% 1.1 km/h SE 1021.4 hPa 0 mm
27 octobre 22:11 6.1°C 95% 0.5 km/h SSE 1021.4 hPa 0 mm
27 octobre 22:10 6.0°C 94% 1.1 km/h ESE 1021.4 hPa 0 mm
27 octobre 22:09 6.0°C 95% 0.5 km/h SE 1021.4 hPa 0 mm
27 octobre 22:08 5.7°C 95% 0.5 km/h SSE 1021.4 hPa 0 mm
27 octobre 22:07 5.6°C 94% 0.5 km/h S 1021.4 hPa 0 mm
27 octobre 22:06 5.6°C 94% 1.6 km/h SE 1021.4 hPa 0 mm
27 octobre 22:05 5.7°C 94% 2.1 km/h SE 1021.4 hPa 0 mm
27 octobre 22:04 5.7°C 94% 2.1 km/h SE 1021.3 hPa 0 mm
27 octobre 22:03 5.9°C 94% 1.6 km/h ESE 1021.3 hPa 0 mm
27 octobre 22:02 6.0°C 94% 1.1 km/h SSE 1021.4 hPa 0 mm
27 octobre 22:01 5.9°C 94% 1.6 km/h SSE 1021.4 hPa 0 mm
27 octobre 22:01 6.0°C 94% 1.6 km/h SSE 1021.4 hPa 0 mm
27 octobre 22:00 6.0°C 94% 0.0 km/h S 1021.4 hPa 0 mm
27 octobre 21:59 6.0°C 94% 0.0 km/h SE 1021.4 hPa 0 mm
27 octobre 21:58 6.0°C 94% 0.0 km/h SE 1021.4 hPa 0 mm
27 octobre 21:57 5.9°C 94% 0.0 km/h ESE 1021.4 hPa 0 mm
27 octobre 21:56 5.9°C 94% 0.5 km/h SSE 1021.4 hPa 0 mm
27 octobre 21:55 5.8°C 94% 0.0 km/h SE 1021.4 hPa 0 mm
27 octobre 21:54 5.7°C 94% 0.0 km/h ESE 1021.4 hPa 0 mm
27 octobre 21:53 5.8°C 94% 0.0 km/h SSE 1021.4 hPa 0 mm
27 octobre 21:52 5.9°C 94% 0.0 km/h SSE 1021.5 hPa 0 mm
27 octobre 21:51 6.1°C 94% 0.0 km/h SE 1021.4 hPa 0 mm
27 octobre 21:50 6.2°C 94% 0.0 km/h SSE 1021.4 hPa 0 mm
27 octobre 21:49 6.2°C 94% 0.0 km/h SSE 1021.4 hPa 0 mm
27 octobre 21:48 6.2°C 94% 0.0 km/h SE 1021.4 hPa 0 mm
27 octobre 21:47 6.2°C 94% 0.0 km/h SSE 1021.5 hPa 0 mm
27 octobre 21:46 6.2°C 94% 0.0 km/h SE 1021.5 hPa 0 mm
27 octobre 21:45 6.2°C 94% 0.5 km/h SSE 1021.4 hPa 0 mm
27 octobre 21:44 6.2°C 94% 1.6 km/h SE 1021.4 hPa 0 mm
27 octobre 21:43 6.3°C 94% 1.1 km/h SE 1021.4 hPa 0 mm
27 octobre 21:42 6.4°C 94% 1.1 km/h ESE 1021.4 hPa 0 mm
27 octobre 21:41 6.4°C 94% 1.1 km/h SE 1021.5 hPa 0 mm
27 octobre 21:40 6.3°C 94% 1.6 km/h SE 1021.4 hPa 0 mm
27 octobre 21:39 6.3°C 94% 1.6 km/h SSE 1021.4 hPa 0 mm
27 octobre 21:38 6.1°C 94% 1.6 km/h SSE 1021.4 hPa 0 mm
27 octobre 21:37 6.1°C 94% 1.1 km/h SSE 1021.3 hPa 0 mm
27 octobre 21:36 6.1°C 94% 1.6 km/h ESE 1021.3 hPa 0 mm
27 octobre 21:35 6.3°C 94% 1.1 km/h SE 1021.3 hPa 0 mm
27 octobre 21:34 6.5°C 94% 1.1 km/h SE 1021.3 hPa 0 mm
27 octobre 21:33 6.7°C 94% 1.1 km/h ESE 1021.3 hPa 0 mm
27 octobre 21:32 6.8°C 94% 1.1 km/h ESE 1021.3 hPa 0 mm
27 octobre 21:31 6.9°C 94% 0.0 km/h SE 1021.3 hPa 0 mm
27 octobre 21:30 6.9°C 94% 0.0 km/h ESE 1021.3 hPa 0 mm
27 octobre 21:29 7.0°C 94% 0.0 km/h ESE 1021.4 hPa 0 mm
27 octobre 21:28 7.2°C 94% 0.0 km/h ESE 1021.3 hPa 0 mm
27 octobre 21:27 7.0°C 94% 0.5 km/h SE 1021.3 hPa 0 mm
27 octobre 21:26 6.8°C 94% 0.0 km/h SE 1021.3 hPa 0 mm
27 octobre 21:25 6.7°C 94% 1.1 km/h ESE 1021.3 hPa 0 mm
27 octobre 21:24 6.5°C 94% 1.1 km/h ESE 1021.3 hPa 0 mm
27 octobre 21:23 6.5°C 94% 1.1 km/h SSE 1021.3 hPa 0 mm
27 octobre 21:22 6.4°C 94% 0.0 km/h E 1021.3 hPa 0 mm
27 octobre 21:21 6.2°C 94% 0.0 km/h SSE 1021.4 hPa 0 mm
27 octobre 21:20 6.1°C 94% 0.5 km/h SE 1021.3 hPa 0 mm
27 octobre 21:19 6.1°C 94% 1.6 km/h SE 1021.4 hPa 0 mm
27 octobre 21:18 6.0°C 94% 1.1 km/h SE 1021.4 hPa 0 mm
27 octobre 21:17 6.3°C 94% 0.5 km/h SSE 1021.3 hPa 0 mm
27 octobre 21:16 6.3°C 94% 1.6 km/h SSE 1021.3 hPa 0 mm
27 octobre 21:15 6.3°C 94% 1.1 km/h SE 1021.3 hPa 0 mm
27 octobre 21:14 6.3°C 94% 1.1 km/h ESE 1021.3 hPa 0 mm
27 octobre 21:13 6.1°C 94% 1.1 km/h SE 1021.3 hPa 0 mm
27 octobre 21:12 6.2°C 94% 0.0 km/h SE 1021.3 hPa 0 mm
27 octobre 21:11 6.2°C 94% 1.1 km/h SE 1021.3 hPa 0 mm
27 octobre 21:10 6.2°C 94% 0.5 km/h SE 1021.3 hPa 0 mm
27 octobre 21:09 6.2°C 94% 0.0 km/h SE 1021.3 hPa 0 mm
27 octobre 21:08 6.2°C 94% 0.0 km/h ESE 1021.4 hPa 0 mm
27 octobre 21:07 6.2°C 94% 0.0 km/h SE 1021.3 hPa 0 mm
27 octobre 21:06 6.2°C 94% 0.0 km/h E 1021.4 hPa 0 mm
27 octobre 21:05 6.1°C 94% 0.0 km/h SE 1021.4 hPa 0 mm
27 octobre 21:04 6.1°C 94% 0.0 km/h ESE 1021.5 hPa 0 mm
27 octobre 21:03 6.1°C 93% 0.0 km/h ESE 1021.4 hPa 0 mm
27 octobre 21:02 6.1°C 93% 1.1 km/h SE 1021.4 hPa 0 mm
27 octobre 21:01 6.1°C 93% 1.1 km/h ESE 1021.4 hPa 0 mm
27 octobre 21:00 6.1°C 93% 1.6 km/h SE 1021.4 hPa 0 mm
27 octobre 20:59 6.2°C 93% 1.6 km/h SSE 1021.4 hPa 0 mm
27 octobre 20:58 6.2°C 93% 1.6 km/h E 1021.4 hPa 0 mm
27 octobre 20:57 6.3°C 93% 1.6 km/h SSE 1021.4 hPa 0 mm
27 octobre 20:56 6.5°C 93% 1.6 km/h S 1021.4 hPa 0 mm
27 octobre 20:55 6.6°C 93% 1.6 km/h S 1021.4 hPa 0 mm
27 octobre 20:54 6.7°C 93% 1.1 km/h S 1021.4 hPa 0 mm
27 octobre 20:53 6.8°C 93% 1.1 km/h S 1021.4 hPa 0 mm
27 octobre 20:52 7.0°C 93% 1.6 km/h SSO 1021.3 hPa 0 mm
27 octobre 20:51 7.1°C 93% 1.1 km/h ESE 1021.4 hPa 0 mm
27 octobre 20:50 7.1°C 93% 0.0 km/h SSE 1021.4 hPa 0 mm
27 octobre 20:49 7.3°C 93% 0.0 km/h SSE 1021.4 hPa 0 mm
27 octobre 20:48 7.5°C 94% 0.0 km/h SE 1021.4 hPa 0 mm
27 octobre 20:47 7.4°C 94% 0.0 km/h SSE 1021.4 hPa 0 mm
27 octobre 20:46 7.2°C 94% 0.0 km/h SE 1021.4 hPa 0 mm
27 octobre 20:45 7.2°C 94% 0.5 km/h SE 1021.4 hPa 0 mm
27 octobre 20:44 7.2°C 94% 1.1 km/h SE 1021.5 hPa 0 mm
27 octobre 20:43 7.2°C 94% 0.5 km/h S 1021.5 hPa 0 mm
27 octobre 20:42 7.3°C 93% 0.0 km/h ESE 1021.5 hPa 0 mm
27 octobre 20:41 7.4°C 94% 0.5 km/h SSE 1021.5 hPa 0 mm
27 octobre 20:40 7.3°C 94% 1.6 km/h SSE 1021.5 hPa 0 mm
27 octobre 20:39 7.2°C 93% 1.1 km/h SE 1021.5 hPa 0 mm
27 octobre 20:38 7.4°C 93% 0.0 km/h SSE 1021.4 hPa 0 mm
27 octobre 20:37 7.4°C 93% 2.1 km/h SE 1021.4 hPa 0 mm
27 octobre 20:36 7.8°C 94% 0.5 km/h SE 1021.4 hPa 0 mm
27 octobre 20:35 7.8°C 94% 0.5 km/h SSE 1021.5 hPa 0 mm
27 octobre 20:34 7.6°C 94% 1.1 km/h ESE 1021.5 hPa 0 mm
27 octobre 20:33 7.3°C 94% 1.1 km/h SE 1021.5 hPa 0 mm
27 octobre 20:32 7.1°C 94% 1.1 km/h E 1021.6 hPa 0 mm
27 octobre 20:31 7.0°C 93% 1.6 km/h SE 1021.5 hPa 0 mm
27 octobre 20:30 7.0°C 93% 1.6 km/h SE 1021.5 hPa 0 mm
27 octobre 20:29 7.2°C 93% 1.1 km/h SSE 1021.5 hPa 0 mm
27 octobre 20:28 7.2°C 94% 0.0 km/h ESE 1021.5 hPa 0 mm
27 octobre 20:27 6.9°C 93% 1.1 km/h SSE 1021.5 hPa 0 mm
27 octobre 20:26 6.7°C 93% 0.0 km/h SSE 1021.5 hPa 0 mm
27 octobre 20:25 6.7°C 93% 0.0 km/h SE 1021.4 hPa 0 mm
27 octobre 20:24 6.8°C 93% 0.0 km/h SE 1021.4 hPa 0 mm
27 octobre 20:23 6.7°C 93% 1.1 km/h SE 1021.4 hPa 0 mm
27 octobre 20:22 6.7°C 93% 0.0 km/h SE 1021.5 hPa 0 mm
27 octobre 20:21 6.9°C 93% 0.0 km/h SSE 1021.5 hPa 0 mm
27 octobre 20:20 7.1°C 93% 0.0 km/h SSE 1021.5 hPa 0 mm
27 octobre 20:19 7.1°C 93% 0.0 km/h SE 1021.5 hPa 0 mm
27 octobre 20:18 6.9°C 93% 0.0 km/h ESE 1021.5 hPa 0 mm
27 octobre 20:17 6.9°C 93% 0.0 km/h SE 1021.5 hPa 0 mm
27 octobre 20:16 6.8°C 93% 0.5 km/h SSE 1021.4 hPa 0 mm
27 octobre 20:15 6.8°C 93% 0.0 km/h SSE 1021.5 hPa 0 mm
27 octobre 20:14 6.7°C 93% 0.0 km/h SE 1021.4 hPa 0 mm
27 octobre 20:13 6.7°C 93% 0.0 km/h SSE 1021.4 hPa 0 mm
27 octobre 20:12 6.7°C 93% 0.0 km/h SSE 1021.4 hPa 0 mm
27 octobre 20:11 6.8°C 93% 0.0 km/h SE 1021.4 hPa 0 mm
27 octobre 20:10 6.8°C 93% 0.0 km/h SE 1021.4 hPa 0 mm
27 octobre 20:09 6.8°C 93% 0.0 km/h S 1021.4 hPa 0 mm
27 octobre 20:08 6.8°C 93% 0.0 km/h SSE 1021.3 hPa 0 mm
27 octobre 20:07 6.8°C 93% 0.0 km/h ESE 1021.4 hPa 0 mm
27 octobre 20:06 6.8°C 93% 0.0 km/h SSE 1021.4 hPa 0 mm
27 octobre 20:05 6.7°C 93% 0.0 km/h ESE 1021.4 hPa 0 mm
27 octobre 20:04 6.7°C 92% 0.0 km/h SE 1021.4 hPa 0 mm
27 octobre 20:03 6.7°C 92% 0.0 km/h SE 1021.4 hPa 0 mm
27 octobre 20:02 6.7°C 92% 0.0 km/h SE 1021.4 hPa 0 mm
27 octobre 20:01 6.8°C 92% 0.5 km/h SE 1021.4 hPa 0 mm
27 octobre 20:00 6.8°C 92% 1.1 km/h SSE 1021.4 hPa 0 mm
27 octobre 19:59 6.8°C 92% 1.1 km/h SE 1021.4 hPa 0 mm
27 octobre 19:58 6.8°C 92% 0.5 km/h SSE 1021.4 hPa 0 mm
27 octobre 19:57 6.9°C 92% 0.5 km/h ESE 1021.3 hPa 0 mm
27 octobre 19:56 6.9°C 92% 1.1 km/h SE 1021.4 hPa 0 mm
27 octobre 19:55 7.0°C 92% 1.1 km/h SE 1021.3 hPa 0 mm
27 octobre 19:54 7.0°C 92% 0.5 km/h SSE 1021.3 hPa 0 mm
27 octobre 19:53 7.1°C 92% 0.0 km/h SE 1021.3 hPa 0 mm
27 octobre 19:52 7.1°C 92% 0.0 km/h SSE 1021.3 hPa 0 mm
27 octobre 19:51 7.1°C 92% 0.0 km/h ESE 1021.3 hPa 0 mm
27 octobre 19:50 7.1°C 92% 0.0 km/h ESE 1021.3 hPa 0 mm
27 octobre 19:49 7.2°C 91% 0.0 km/h SE 1021.3 hPa 0 mm
27 octobre 19:48 7.2°C 91% 1.1 km/h SE 1021.3 hPa 0 mm
27 octobre 19:47 7.2°C 91% 1.1 km/h ESE 1021.3 hPa 0 mm
27 octobre 19:46 7.3°C 91% 0.0 km/h SSE 1021.3 hPa 0 mm
27 octobre 19:45 7.4°C 91% 0.0 km/h SSE 1021.3 hPa 0 mm
27 octobre 19:44 7.5°C 91% 0.0 km/h ESE 1021.3 hPa 0 mm
27 octobre 19:43 7.6°C 91% 0.0 km/h SE 1021.3 hPa 0 mm
27 octobre 19:42 7.7°C 91% 0.0 km/h SE 1021.3 hPa 0 mm
27 octobre 19:41 7.8°C 91% 0.0 km/h SE 1021.3 hPa 0 mm
27 octobre 19:40 7.9°C 91% 0.5 km/h SE 1021.3 hPa 0 mm
27 octobre 19:39 8.1°C 91% 0.0 km/h ESE 1021.3 hPa 0 mm
27 octobre 19:38 8.1°C 91% 1.1 km/h SE 1021.3 hPa 0 mm
27 octobre 19:37 8.2°C 91% 0.5 km/h S 1021.3 hPa 0 mm
27 octobre 19:36 8.2°C 91% 1.1 km/h S 1021.3 hPa 0 mm
27 octobre 19:35 8.3°C 91% 1.1 km/h SSE 1021.3 hPa 0 mm
27 octobre 19:34 8.3°C 91% 1.1 km/h SSE 1021.3 hPa 0 mm
27 octobre 19:33 8.3°C 91% 1.1 km/h SE 1021.3 hPa 0 mm
27 octobre 19:32 8.3°C 91% 1.1 km/h SE 1021.3 hPa 0 mm
27 octobre 19:31 8.4°C 91% 0.0 km/h SE 1021.3 hPa 0 mm
27 octobre 19:30 8.4°C 91% 0.0 km/h SE 1021.3 hPa 0 mm
27 octobre 19:29 8.5°C 91% 1.1 km/h SE 1021.3 hPa 0 mm
27 octobre 19:28 8.6°C 91% 1.1 km/h SSE 1021.3 hPa 0 mm
27 octobre 19:27 8.6°C 91% 1.1 km/h SE 1021.3 hPa 0 mm
27 octobre 19:26 8.6°C 91% 1.1 km/h E 1021.3 hPa 0 mm
27 octobre 19:25 8.7°C 91% 1.1 km/h SSE 1021.3 hPa 0 mm
27 octobre 19:24 8.7°C 91% 1.1 km/h SE 1021.4 hPa 0 mm
27 octobre 19:23 8.7°C 91% 1.1 km/h SE 1021.3 hPa 0 mm
27 octobre 19:22 8.7°C 91% 1.1 km/h SE 1021.3 hPa 0 mm
27 octobre 19:21 8.8°C 91% 1.1 km/h SSE 1021.3 hPa 0 mm
27 octobre 19:20 8.8°C 91% 1.1 km/h SSE 1021.3 hPa 0 mm
27 octobre 19:19 8.8°C 91% 1.1 km/h SE 1021.3 hPa 0 mm
27 octobre 19:18 8.7°C 91% 1.1 km/h ESE 1021.3 hPa 0 mm
27 octobre 19:17 8.7°C 91% 1.6 km/h SE 1021.3 hPa 0 mm
27 octobre 19:16 8.4°C 91% 1.1 km/h SE 1021.3 hPa 0 mm
27 octobre 19:15 8.1°C 91% 0.5 km/h SE 1021.3 hPa 0 mm
27 octobre 19:14 8.0°C 91% 0.0 km/h SE 1021.3 hPa 0 mm
27 octobre 19:13 8.0°C 90% 0.5 km/h SE 1021.3 hPa 0 mm
27 octobre 19:12 8.1°C 90% 1.1 km/h ESE 1021.2 hPa 0 mm
27 octobre 19:11 8.3°C 90% 0.0 km/h SE 1021.2 hPa 0 mm
27 octobre 19:10 8.4°C 90% 0.5 km/h E 1021.2 hPa 0 mm
27 octobre 19:09 8.5°C 90% 1.1 km/h SSE 1021.2 hPa 0 mm
27 octobre 19:08 8.6°C 90% 1.6 km/h SE 1021.3 hPa 0 mm
27 octobre 19:07 8.7°C 90% 1.1 km/h SE 1021.2 hPa 0 mm
27 octobre 19:06 8.7°C 90% 0.0 km/h SSE 1021.3 hPa 0 mm
27 octobre 19:05 8.8°C 90% 0.0 km/h SE 1021.3 hPa 0 mm
27 octobre 19:04 8.9°C 90% 0.0 km/h SE 1021.3 hPa 0 mm
27 octobre 19:03 8.9°C 90% 0.0 km/h SE 1021.4 hPa 0 mm
27 octobre 19:02 8.9°C 90% 0.0 km/h SE 1021.4 hPa 0 mm
27 octobre 19:01 8.8°C 90% 0.0 km/h SE 1021.3 hPa 0 mm
27 octobre 19:00 8.8°C 90% 0.0 km/h SE 1021.3 hPa 0 mm
27 octobre 18:59 8.8°C 90% 0.0 km/h SSE 1021.3 hPa 0 mm
27 octobre 18:58 8.8°C 90% 0.0 km/h SE 1021.3 hPa 0 mm
27 octobre 18:57 8.9°C 89% 0.0 km/h S 1021.3 hPa 0 mm
27 octobre 18:56 8.9°C 89% 0.0 km/h SE 1021.3 hPa 0 mm
27 octobre 18:55 9.0°C 89% 0.0 km/h SE 1021.3 hPa 0 mm
27 octobre 18:54 9.1°C 89% 0.0 km/h SE 1021.3 hPa 0 mm
27 octobre 18:53 9.2°C 89% 0.0 km/h SE 1021.3 hPa 0 mm
27 octobre 18:52 9.2°C 89% 0.0 km/h SSE 1021.4 hPa 0 mm
27 octobre 18:51 9.3°C 89% 0.0 km/h SSE 1021.3 hPa 0 mm
27 octobre 18:50 9.3°C 88% 0.0 km/h SE 1021.3 hPa 0 mm
27 octobre 18:49 9.4°C 88% 0.0 km/h ESE 1021.4 hPa 0 mm
27 octobre 18:48 9.4°C 88% 0.0 km/h SE 1021.4 hPa 0 mm
27 octobre 18:47 9.5°C 88% 0.0 km/h SSE 1021.3 hPa 0 mm
27 octobre 18:46 9.6°C 88% 0.0 km/h SSE 1021.4 hPa 0 mm
27 octobre 18:45 9.7°C 88% 0.0 km/h SE 1021.4 hPa 0 mm
27 octobre 18:44 9.8°C 87% 0.0 km/h SE 1021.3 hPa 0 mm
27 octobre 18:43 9.8°C 87% 0.5 km/h SSE 1021.3 hPa 0 mm
27 octobre 18:42 10.0°C 87% 0.5 km/h SE 1021.3 hPa 0 mm
27 octobre 18:41 10.0°C 87% 0.0 km/h SSE 1021.4 hPa 0 mm
27 octobre 18:40 10.1°C 87% 0.0 km/h SE 1021.3 hPa 0 mm
27 octobre 18:39 10.1°C 87% 0.0 km/h SE 1021.3 hPa 0 mm
27 octobre 18:38 10.2°C 87% 0.0 km/h SE 1021.3 hPa 0 mm
27 octobre 18:37 10.2°C 87% 0.0 km/h SE 1021.4 hPa 0 mm
27 octobre 18:36 10.2°C 87% 0.0 km/h SE 1021.4 hPa 0 mm
27 octobre 18:35 10.2°C 87% 0.0 km/h SE 1021.4 hPa 0 mm
27 octobre 18:34 10.2°C 86% 0.0 km/h SE 1021.4 hPa 0 mm
27 octobre 18:33 10.3°C 86% 0.0 km/h SE 1021.4 hPa 0 mm
27 octobre 18:32 10.4°C 86% 0.0 km/h SE 1021.4 hPa 0 mm
27 octobre 18:31 10.5°C 86% 0.0 km/h SE 1021.4 hPa 0 mm
27 octobre 18:30 10.6°C 86% 0.0 km/h SE 1021.4 hPa 0 mm
27 octobre 18:29 10.7°C 86% 0.0 km/h SE 1021.4 hPa 0 mm
27 octobre 18:28 10.7°C 86% 0.0 km/h SE 1021.3 hPa 0 mm
27 octobre 18:27 10.8°C 86% 0.0 km/h SE 1021.3 hPa 0 mm
27 octobre 18:26 10.8°C 86% 0.0 km/h SE 1021.4 hPa 0 mm
27 octobre 18:25 10.8°C 85% 0.0 km/h ESE 1021.4 hPa 0 mm
27 octobre 18:24 10.9°C 85% 0.0 km/h SE 1021.4 hPa 0 mm
27 octobre 18:23 11.0°C 85% 0.0 km/h SE 1021.3 hPa 0 mm
27 octobre 18:22 11.2°C 85% 0.5 km/h SE 1021.4 hPa 0 mm
27 octobre 18:21 11.3°C 84% 0.0 km/h SE 1021.4 hPa 0 mm
27 octobre 18:20 11.4°C 84% 1.6 km/h ESE 1021.4 hPa 0 mm
27 octobre 18:19 11.6°C 84% 1.6 km/h ESE 1021.4 hPa 0 mm
27 octobre 18:18 11.6°C 84% 1.6 km/h ESE 1021.3 hPa 0 mm
27 octobre 18:17 11.7°C 84% 2.1 km/h ESE 1021.3 hPa 0 mm
27 octobre 18:16 11.8°C 84% 2.1 km/h ESE 1021.4 hPa 0 mm
27 octobre 18:15 11.9°C 83% 2.1 km/h SE 1021.4 hPa 0 mm
27 octobre 18:14 11.9°C 83% 2.1 km/h ESE 1021.4 hPa 0 mm
27 octobre 18:13 11.9°C 83% 1.6 km/h ESE 1021.4 hPa 0 mm
27 octobre 18:12 12.0°C 83% 1.1 km/h ESE 1021.4 hPa 0 mm
27 octobre 18:11 12.1°C 82% 1.6 km/h SE 1021.4 hPa 0 mm
27 octobre 18:10 12.2°C 82% 2.1 km/h ESE 1021.4 hPa 0 mm
27 octobre 18:09 12.2°C 82% 1.6 km/h ESE 1021.4 hPa 0 mm
27 octobre 18:08 12.3°C 82% 2.1 km/h ESE 1021.4 hPa 0 mm
27 octobre 18:07 12.4°C 82% 1.6 km/h ESE 1021.4 hPa 0 mm
27 octobre 18:06 12.4°C 82% 1.6 km/h SE 1021.3 hPa 0 mm
27 octobre 18:05 12.5°C 81% 1.6 km/h E 1021.3 hPa 0 mm
27 octobre 18:04 12.5°C 81% 1.6 km/h ESE 1021.3 hPa 0 mm
27 octobre 18:03 12.5°C 81% 2.1 km/h ESE 1021.4 hPa 0 mm
27 octobre 18:02 12.6°C 81% 2.1 km/h ENE 1021.3 hPa 0 mm
27 octobre 18:01 12.6°C 81% 2.1 km/h ESE 1021.4 hPa 0 mm
27 octobre 18:00 12.7°C 81% 2.6 km/h ESE 1021.3 hPa 0 mm
27 octobre 17:59 12.7°C 81% 2.1 km/h E 1021.4 hPa 0 mm
27 octobre 17:58 12.7°C 81% 3.2 km/h ESE 1021.3 hPa 0 mm
27 octobre 17:57 12.7°C 81% 2.6 km/h E 1021.3 hPa 0 mm
27 octobre 17:56 12.8°C 80% 3.2 km/h ESE 1021.4 hPa 0 mm
27 octobre 17:55 12.8°C 81% 3.2 km/h E 1021.4 hPa 0 mm
27 octobre 17:54 12.8°C 80% 3.2 km/h ESE 1021.4 hPa 0 mm
27 octobre 17:53 12.8°C 80% 3.2 km/h ESE 1021.4 hPa 0 mm
27 octobre 17:52 12.8°C 80% 2.6 km/h E 1021.4 hPa 0 mm
27 octobre 17:51 12.9°C 80% 2.6 km/h E 1021.4 hPa 0 mm
27 octobre 17:50 12.9°C 80% 2.1 km/h E 1021.4 hPa 0 mm
27 octobre 17:49 13.0°C 80% 2.1 km/h E 1021.4 hPa 0 mm
27 octobre 17:48 13.0°C 80% 2.1 km/h E 1021.4 hPa 0 mm
27 octobre 17:47 13.0°C 80% 2.6 km/h E 1021.4 hPa